GFSGBSN_250_spd_078.txt.gz
Wind_Speed
80 78 74 79 80 81 80 86 86 86 87 84 83 86 86 84 84 87 85 85 84 72 67 66 67 68 68 63 67 60 60 55 55 57 54 50 50 48 54 53 51 52 51 47 43 40 31
83 82 84 84 86 77 80 82 86 86 85 88 85 85 92 90 87 89 89 91 85 82 71 68 65 64 57 62 62 57 60 59 58 56 55 56 54 49 52 54 50 50 48 45 42 38 36
87 84 80 83 86 87 83 83 90 92 90 93 98 95 88 87 90 93 95 92 93 87 83 67 69 71 66 60 58 56 56 55 60 60 59 54 46 46 47 49 49 49 44 42 40 40 34
95 97 96 101 99 104 94 93 92 93 98 100 100 96 98 93 90 92 95 99 95 89 81 72 69 70 62 63 57 58 52 57 57 57 56 49 43 45 48 53 49 45 41 41 35 35 33
99 96 106 102 105 101 96 104 104 100 102 101 100 104 100 95 93 93 92 95 92 85 75 65 66 66 59 58 55 55 55 55 54 55 51 46 43 46 49 52 48 42 37 41 37 36 32
101 99 96 98 102 104 107 110 112 108 106 102 107 99 103 101 96 93 93 91 91 82 76 65 61 65 59 59 60 57 61 56 55 50 50 46 46 46 53 49 45 43 36 41 35 34 28
100 101 108 108 111 115 114 117 116 110 106 105 98 98 95 89 89 84 87 83 82 79 68 62 60 65 65 63 68 62 62 61 55 53 52 50 41 43 55 48 45 45 36 38 40 31 27
107 111 115 120 119 122 118 115 115 107 102 95 91 88 82 77 78 78 74 73 74 69 59 59 63 66 64 71 66 67 64 63 56 58 56 52 46 57 53 53 46 41 40 46 41 36 31
117 121 121 125 123 117 116 109 105 101 95 90 87 83 79 75 74 70 70 67 65 61 56 64 67 68 71 71 64 67 67 68 65 62 61 58 53 56 56 53 49 48 45 44 38 34 32
125 127 122 117 115 109 105 103 97 91 85 82 80 74 72 69 67 68 64 65 61 61 61 67 73 71 73 74 68 75 70 72 70 63 63 56 55 55 55 54 55 51 50 43 40 36 36
125 119 114 111 108 104 100 93 88 83 81 78 79 75 70 67 67 66 63 62 61 63 62 71 72 72 77 74 74 80 76 77 68 66 64 58 61 59 57 56 53 50 48 43 40 33 34
116 113 106 103 99 95 91 88 84 82 80 78 76 72 70 67 68 62 63 63 62 66 65 70 73 76 80 83 81 80 78 79 75 75 69 65 66 65 59 60 55 55 48 46 42 37 29
100 99 96 94 91 89 87 84 83 80 79 78 76 71 68 66 69 63 67 65 67 64 69 68 70 82 81 84 83 80 82 80 77 76 75 75 73 70 64 61 58 58 54 50 44 32 35
92 91 90 89 89 87 83 80 76 75 75 75 76 74 70 68 69 67 67 65 62 66 68 73 73 76 86 85 87 82 78 78 80 79 77 76 72 69 65 65 63 63 59 52 49 48 41
86 83 81 78 78 80 78 75 72 72 71 71 73 70 71 71 73 72 69 58 62 61 68 70 75 84 83 88 88 87 84 81 80 79 77 76 73 70 68 68 67 62 57 57 55 48 42
75 73 72 72 72 73 74 71 68 68 70 71 71 68 67 72 73 76 68 55 57 58 62 78 84 81 82 84 87 88 86 85 83 84 84 79 77 76 76 76 75 72 69 67 62 55 52
66 65 64 66 66 67 69 68 67 67 71 72 69 68 63 68 73 70 59 58 58 60 66 69 78 83 81 79 79 83 87 90 88 85 81 81 80 80 81 78 80 78 74 70 64 59 54
59 58 57 57 60 61 61 61 64 66 70 69 69 64 62 68 67 54 51 56 62 63 65 68 73 77 75 71 69 74 84 90 88 87 88 87 85 81 83 84 81 78 73 73 70 66 57
53 52 52 52 53 54 53 55 57 63 65 67 62 59 60 67 56 47 47 54 59 61 69 70 72 75 74 70 67 71 78 81 79 83 90 91 89 90 88 87 82 80 78 76 74 72 60
52 50 47 47 47 47 47 48 52 57 59 61 56 52 53 55 49 49 50 54 56 62 67 66 67 70 66 68 65 66 68 73 70 71 75 82 82 81 84 91 92 90 87 82 81 74 61
48 45 44 42 42 43 45 46 49 53 56 56 50 44 47 42 49 54 56 58 58 63 63 64 59 57 60 62 63 63 63 62 59 58 64 68 65 67 70 78 77 74 72 72 69 63 56
45 43 42 40 40 42 44 47 49 53 54 48 46 45 47 45 53 55 52 52 59 62 61 64 59 61 59 59 60 52 51 53 54 56 60 62 55 59 59 65 67 65 60 54 55 55 49
41 40 40 40 40 41 43 47 50 52 51 43 43 45 47 48 51 46 48 57 58 58 59 58 58 58 60 61 52 47 49 53 51 52 58 55 57 62 59 63 65 55 48 55 54 50 48
41 41 41 42 42 42 43 44 46 50 48 39 40 47 44 44 44 47 52 54 55 56 58 58 57 58 55 50 46 45 48 48 45 50 52 53 60 57 54 61 57 48 58 58 59 55 51
39 39 40 39 40 41 40 42 43 46 46 40 39 38 38 41 45 47 49 52 53 52 52 53 54 53 47 45 42 40 46 41 43 47 49 55 60 66 62 63 59 54 59 60 56 57 57
41 42 43 44 45 46 46 46 45 46 45 42 34 34 33 41 39 45 46 50 51 52 52 54 52 47 44 42 40 38 41 42 42 48 53 50 62 64 56 62 61 58 60 59 55 58 62
43 45 46 48 49 51 52 52 51 51 50 47 41 33 31 34 44 45 43 47 49 51 54 56 53 45 44 40 38 36 41 46 45 48 53 54 61 60 62 65 61 59 62 57 55 65 62
41 42 43 45 47 50 53 55 55 54 54 51 48 40 38 38 42 43 44 44 47 50 54 57 51 41 43 39 38 38 42 48 49 50 53 54 57 60 63 64 58 60 60 58 63 63 64
35 36 37 38 40 43 45 48 50 52 54 53 52 47 41 48 46 46 44 44 46 51 57 54 49 41 41 39 37 41 46 49 55 56 56 54 56 60 58 54 55 55 58 57 62 67 66

GFSGBSN_250_spd_081.txt.gz
Wind_Speed
82 80 83 81 82 84 85 82 82 81 78 75 79 79 78 74 73 76 77 76 76 75 73 74 74 71 76 75 64 67 61 57 63 64 59 53 54 49 46 45 44 48 49 46 41 43 37
89 89 89 86 88 85 84 87 83 82 81 83 80 77 81 83 81 81 82 80 84 83 81 80 75 70 75 72 70 70 60 62 59 67 62 57 51 46 46 46 45 47 45 44 41 41 33
89 92 97 91 90 92 91 90 88 88 89 84 84 84 90 85 91 91 91 89 88 91 89 87 84 81 66 75 67 66 60 59 60 56 57 55 49 43 45 49 49 45 41 42 42 38 30
90 93 95 94 94 94 94 94 95 95 93 94 96 98 99 99 100 97 94 94 92 92 95 91 88 87 76 75 73 62 60 57 60 56 54 48 45 42 46 49 48 44 39 42 39 33 27
98 99 98 100 98 98 101 99 98 95 99 100 102 103 105 105 104 106 99 100 100 104 98 95 93 83 72 72 69 60 60 59 60 58 54 47 40 41 45 46 45 41 40 40 39 27 29
96 102 105 103 97 95 98 100 103 104 103 103 105 106 100 109 113 108 97 104 96 103 103 93 82 83 77 70 67 57 58 56 62 59 51 46 39 43 44 47 44 42 41 39 40 26 22
94 97 98 98 95 97 95 101 103 104 105 103 108 111 109 105 113 103 100 93 92 89 83 77 70 70 72 69 63 58 60 56 59 62 51 47 44 40 54 46 40 42 35 37 40 30 27
96 99 99 94 97 96 95 98 98 103 103 103 104 110 111 108 103 101 90 93 89 74 69 67 63 62 67 66 57 61 64 60 55 59 56 48 40 54 53 47 42 39 35 41 45 36 28
102 104 105 103 102 100 99 102 102 106 104 103 108 106 99 101 98 91 84 83 79 71 66 64 60 57 58 56 57 64 65 69 63 53 59 55 52 57 51 48 44 45 39 47 39 33 36
103 104 104 106 108 107 109 107 108 107 105 105 105 101 95 92 86 84 75 72 66 64 59 58 57 50 52 53 60 67 65 68 67 65 64 65 58 59 54 52 51 46 52 44 37 34 35
108 111 115 110 111 112 110 109 110 109 106 102 100 93 88 80 80 75 67 64 60 56 48 54 51 50 53 58 61 68 69 68 63 70 65 64 64 64 56 56 53 53 47 45 38 36 33
113 113 114 112 110 109 108 105 102 100 96 93 88 87 81 76 78 71 67 62 57 55 45 47 49 52 53 61 64 65 67 71 73 69 65 65 64 65 61 58 51 53 51 45 41 43 35
106 106 105 103 101 99 96 93 91 88 87 85 83 82 77 74 73 67 65 59 55 50 49 50 50 54 57 60 65 67 71 72 76 77 69 70 68 68 65 57 57 55 56 52 49 47 36
96 93 92 91 89 87 84 84 84 83 83 82 80 76 71 69 69 66 65 59 50 48 51 52 52 55 61 62 70 71 74 75 82 75 72 71 70 71 68 65 66 64 62 56 52 50 42
83 84 83 82 82 80 78 79 78 77 77 77 73 70 66 66 66 65 64 54 50 52 50 50 51 55 64 70 71 72 71 78 78 80 82 75 66 69 67 65 66 64 60 63 54 49 43
77 76 75 75 74 72 70 70 71 71 71 73 68 65 62 64 64 64 59 49 52 54 51 53 55 56 62 69 76 77 78 78 77 80 83 82 77 74 74 72 69 68 67 66 57 50 48
71 68 67 67 66 66 65 65 66 66 66 66 62 58 61 61 61 59 48 50 56 58 57 58 61 57 58 65 73 79 83 82 80 80 81 82 82 74 72 70 72 72 69 66 61 54 52
59 59 61 61 60 58 56 56 58 58 57 56 53 49 63 60 55 46 46 51 56 60 62 64 63 61 59 60 65 72 80 83 82 84 85 83 84 84 78 75 72 68 66 67 63 61 58
55 56 56 53 51 50 48 48 50 53 51 50 45 46 56 52 42 46 47 52 53 57 62 65 64 64 64 63 64 63 68 77 78 83 84 88 88 85 81 79 77 78 77 74 72 70 59
51 50 46 45 45 45 44 43 43 44 45 44 41 39 47 38 35 45 48 49 52 56 57 59 63 67 66 64 62 62 65 70 73 77 80 81 84 85 85 84 84 77 76 76 74 70 63
44 43 43 43 43 42 42 41 40 39 39 36 34 35 42 34 39 51 52 53 57 56 56 58 59 65 67 65 65 63 67 69 67 67 68 72 72 75 77 82 88 85 82 80 77 72 69
40 40 40 41 42 43 42 40 37 34 33 32 35 37 39 41 45 50 52 49 54 56 55 54 56 62 62 63 62 59 59 60 59 58 60 59 57 66 66 73 79 82 81 79 77 77 74
37 39 40 41 41 41 41 39 37 32 31 33 33 38 38 43 44 45 42 52 55 56 55 55 57 58 59 52 44 49 49 53 57 54 55 55 57 60 60 70 73 74 65 72 71 70 69
38 39 39 39 40 40 40 40 38 33 34 33 35 35 36 41 41 48 52 51 52 54 56 55 56 57 57 42 45 48 49 49 49 49 44 49 53 54 58 64 70 67 66 65 66 67 66
38 39 40 40 41 41 41 41 40 36 33 36 38 38 38 39 40 43 46 49 51 51 53 53 56 54 45 43 45 46 47 47 50 48 44 49 52 52 59 64 65 55 62 64 62 62 59
37 38 39 41 44 45 46 46 44 41 36 37 40 40 40 40 39 42 43 45 47 47 50 53 52 45 42 44 43 45 46 49 48 46 46 48 50 50 52 55 57 52 60 61 54 57 60
40 41 42 44 47 48 47 47 45 43 36 36 39 38 38 40 42 40 41 44 46 48 48 49 49 45 43 43 44 46 47 49 49 46 45 48 50 52 54 55 57 49 55 56 54 60 58
42 43 44 45 44 45 46 46 46 43 39 31 42 40 38 40 41 39 42 42 43 45 45 47 44 39 40 40 41 44 44 45 46 43 44 45 49 52 55 57 56 48 51 52 53 57 58
39 39 39 39 39 40 42 43 45 46 41 38 35 44 45 42 41 38 40 42 43 44 43 42 42 38 40 40 42 42 42 43 45 42 40 43 46 50 53 55 54 50 49 57 56 58 57

GFSGBSN_250_spd_084.txt.gz
Wind_Speed
80 79 78 81 82 81 81 82 85 86 87 84 83 81 85 85 84 79 79 77 76 76 75 72 73 71 73 73 73 78 74 73 72 64 60 59 50 50 53 52 47 49 50 47 44 39 39
87 89 86 81 86 87 87 87 90 90 88 89 86 83 82 83 85 81 80 81 79 79 76 82 79 80 80 77 75 77 81 82 74 71 67 50 50 45 50 55 50 50 49 47 45 39 39
79 94 96 94 88 89 90 91 91 88 88 91 93 92 91 90 89 84 86 86 85 83 82 84 83 85 84 90 87 84 84 83 78 75 66 56 50 48 50 53 55 49 46 45 46 43 38
83 87 93 94 97 95 94 93 97 93 91 92 91 94 92 92 92 89 93 92 89 89 91 90 93 93 91 94 93 91 86 86 81 73 61 58 48 51 47 47 46 46 44 44 45 39 36
88 89 94 96 96 97 98 98 99 95 95 98 96 98 94 95 98 98 95 96 98 98 99 101 102 102 100 102 99 99 99 91 89 78 63 54 46 51 49 47 42 46 45 47 39 34 34
91 93 94 97 102 96 100 100 101 101 102 103 102 102 104 99 103 103 102 103 103 105 106 107 105 106 105 102 106 98 92 88 83 76 61 55 47 47 48 49 47 48 38 38 36 34 36
93 89 88 91 95 97 102 103 102 101 104 105 107 104 106 108 105 108 107 109 113 110 109 111 108 104 107 103 102 101 84 79 76 66 58 56 46 42 49 59 48 40 39 42 40 33 33
93 90 93 88 89 95 99 97 95 99 98 102 103 102 107 105 103 106 108 112 114 113 109 109 111 107 113 101 93 81 75 71 68 64 59 52 47 51 58 54 50 42 39 44 38 40 28
99 96 94 86 89 90 96 101 99 98 96 99 102 104 103 100 104 106 103 102 107 110 109 102 110 105 105 102 80 71 67 66 63 62 58 52 50 53 57 56 51 44 42 52 41 42 24
104 101 97 90 90 91 91 97 99 97 98 98 98 99 100 101 102 105 105 105 104 101 96 90 89 84 78 79 71 68 66 64 63 61 60 55 54 57 60 55 49 46 53 48 41 43 31
104 98 99 97 99 98 98 97 99 100 103 103 103 105 103 97 99 102 100 100 95 87 85 87 75 71 66 67 65 67 65 61 64 65 64 65 62 57 55 57 56 52 52 52 46 42 34
101 100 97 99 102 102 102 102 102 102 103 104 102 99 97 97 95 94 91 86 92 81 68 65 62 61 62 62 64 65 68 65 67 68 66 69 68 59 52 60 61 63 57 53 48 42 33
93 94 93 96 97 97 98 100 100 99 97 96 95 91 88 88 87 84 84 80 76 69 61 57 59 60 58 60 62 66 70 69 69 70 66 72 68 67 67 56 62 64 61 55 48 40 36
85 87 87 87 90 90 91 91 91 90 90 88 86 81 78 79 78 77 78 75 66 59 60 57 59 60 59 60 64 66 69 70 70 67 66 69 69 68 67 64 69 65 58 58 52 48 44
78 79 80 80 80 81 82 82 81 81 81 80 78 76 74 77 77 76 75 69 63 61 62 59 59 61 61 62 64 66 68 69 68 65 57 66 70 70 67 65 64 62 57 57 55 52 48
70 69 70 73 75 79 79 78 79 79 78 76 72 70 73 72 73 72 66 60 57 61 61 61 60 61 62 62 66 66 66 67 68 68 63 60 65 69 74 70 70 67 66 62 63 60 54
64 61 62 65 68 71 72 72 72 70 69 64 62 59 70 63 63 59 48 51 55 61 62 62 62 63 64 63 66 68 64 68 65 66 66 64 65 65 70 71 75 72 68 66 65 54 51
56 59 60 61 63 65 66 65 62 59 57 55 53 56 61 55 51 44 47 54 59 62 63 62 64 65 65 65 64 67 66 66 65 66 69 71 69 72 71 74 75 66 65 64 58 56 57
53 55 56 57 58 58 57 55 53 51 48 47 49 52 52 45 38 42 51 54 58 63 63 62 64 66 65 64 63 67 68 70 70 73 74 73 71 72 74 78 79 80 80 75 72 71 63
49 50 51 52 52 52 51 49 46 44 41 40 45 48 46 38 38 44 50 53 54 60 61 60 63 66 67 67 66 68 70 71 75 79 76 76 76 77 76 77 80 81 84 82 81 75 66
44 44 45 46 47 47 45 43 40 38 34 34 38 44 39 35 42 48 48 52 55 57 59 60 61 66 68 68 66 66 66 65 66 71 76 78 81 83 82 83 85 83 80 80 77 69 69
39 39 40 40 40 39 39 37 37 34 30 31 34 35 32 38 40 47 46 47 55 59 59 58 62 63 65 68 68 65 64 64 65 69 73 80 82 83 83 88 88 85 87 84 80 76 75
34 35 35 36 37 38 38 36 35 33 31 32 31 27 29 34 38 41 46 53 58 61 60 56 59 58 61 65 62 63 63 65 66 65 65 68 74 76 75 79 81 81 87 86 84 85 79
31 32 34 35 37 37 37 35 33 31 31 31 29 29 29 32 37 44 47 51 51 52 56 53 53 58 59 58 55 55 58 63 64 67 62 63 66 65 64 74 74 76 80 82 81 80 79
31 33 34 35 36 36 35 35 34 31 29 32 31 32 30 31 37 39 42 44 45 49 48 50 50 56 56 51 49 50 54 58 63 64 60 60 55 57 59 68 67 68 73 77 77 76 77
32 33 34 35 35 36 36 36 36 33 29 31 35 34 34 33 38 38 40 42 44 47 49 50 51 51 49 47 45 45 48 53 53 54 50 50 50 49 54 59 60 65 69 69 69 68 66
31 32 34 35 36 37 37 39 40 37 32 33 37 38 37 40 37 39 41 44 45 46 51 50 50 48 43 41 40 44 48 49 50 49 48 47 46 47 49 52 54 58 61 63 61 58 61
33 36 38 39 40 40 40 40 40 36 34 32 43 43 41 42 41 41 42 42 43 44 46 48 44 42 40 38 43 45 47 48 48 46 44 41 42 44 49 49 52 54 58 59 58 51 53
39 40 41 41 40 39 39 39 39 37 34 32 43 47 45 45 39 42 43 41 42 42 42 44 45 42 38 41 44 44 44 45 42 43 42 38 41 41 43 49 51 53 55 57 59 49 53

GFSGBSN_250_spd_087.txt.gz
Wind_Speed
86 77 81 85 79 76 77 79 76 78 76 82 81 81 82 85 81 85 83 82 82 86 84 85 77 75 71 71 74 74 78 79 80 82 79 73 72 71 67 61 54 42 54 55 56 49 45
77 76 79 79 84 83 82 82 84 87 85 85 86 86 87 88 88 84 87 88 87 86 82 79 78 80 79 78 81 82 81 82 84 82 73 72 75 75 73 63 55 43 47 53 56 48 44
78 80 82 81 87 93 87 85 87 90 92 91 87 88 91 90 91 92 92 89 90 86 86 82 82 79 78 84 81 84 83 83 85 83 83 80 77 82 76 77 55 47 47 53 54 52 46
92 81 78 85 86 88 92 98 90 91 92 97 96 94 90 91 92 90 92 89 91 88 89 89 89 86 84 90 88 89 90 90 92 92 90 87 83 83 82 78 62 51 47 53 59 52 47
88 97 90 81 83 87 90 94 97 103 99 99 99 95 98 96 95 95 95 95 91 91 92 92 92 93 88 90 91 94 94 96 98 97 96 91 85 81 81 74 63 51 49 52 58 46 40
94 93 93 91 87 86 91 91 95 96 103 100 99 96 95 99 99 99 98 99 96 94 92 93 97 96 99 98 98 97 99 101 102 101 101 94 89 85 77 75 57 51 56 55 49 45 38
96 96 97 98 87 89 86 96 102 99 99 100 100 95 101 97 100 103 106 105 104 104 101 99 99 99 100 101 106 101 103 106 108 107 105 98 91 82 80 67 53 57 54 50 49 44 37
113 108 103 104 99 98 92 89 95 101 101 100 101 104 101 100 103 104 105 107 107 104 104 107 108 103 107 104 103 107 107 108 108 108 105 97 86 86 76 61 55 53 56 50 52 46 37
110 112 110 113 109 106 104 92 86 88 95 99 102 101 102 104 105 103 108 105 107 108 108 107 111 108 110 111 108 110 107 110 109 105 101 91 86 76 68 59 54 46 48 52 54 51 34
125 124 125 116 106 105 100 93 92 93 93 92 87 96 103 100 105 103 106 108 109 106 113 113 108 108 107 105 105 109 103 102 99 97 95 88 72 68 62 56 60 51 55 53 52 50 43
106 112 109 104 102 101 98 95 100 97 99 102 93 95 95 101 97 107 109 104 105 105 114 109 102 98 102 105 102 97 101 99 91 86 82 68 66 60 59 56 62 57 57 54 54 51 39
99 103 100 97 97 97 97 98 100 99 99 99 98 96 94 94 96 100 103 104 102 106 107 106 97 94 95 98 95 94 90 85 77 76 71 62 57 55 59 60 59 58 54 52 54 53 47
92 91 91 91 93 93 94 95 96 97 96 96 97 97 97 98 101 98 97 99 98 95 94 94 89 85 86 86 83 82 75 72 69 68 61 60 53 58 61 62 62 53 63 55 58 51 42
85 86 86 85 86 87 89 91 92 92 92 93 91 91 93 93 93 93 93 91 88 85 82 81 79 79 80 74 72 70 68 67 64 61 58 57 57 61 65 65 64 63 61 56 56 52 52
77 78 78 78 79 81 83 85 84 85 84 83 82 83 84 84 84 86 85 80 74 79 76 70 69 66 67 64 63 65 65 63 61 59 58 59 63 62 70 70 73 68 62 57 55 56 59
67 69 71 71 70 70 71 73 77 80 80 79 78 77 79 76 78 77 71 64 69 72 67 67 72 67 67 62 62 63 64 60 59 58 56 62 67 67 71 69 75 67 66 59 53 59 58
61 62 62 61 63 64 65 67 69 72 72 73 76 77 79 72 72 69 63 64 70 69 65 71 72 63 65 63 64 65 64 63 58 58 58 64 66 67 69 68 75 78 71 62 63 57 60
52 55 55 56 57 59 60 62 64 66 67 69 71 70 66 64 62 61 58 63 64 63 64 69 69 68 66 63 63 66 66 62 58 59 61 61 65 64 64 72 71 73 73 63 65 59 59
47 49 51 53 54 55 57 58 61 62 61 58 61 63 56 53 52 53 55 58 57 58 63 66 67 65 64 62 65 69 67 64 63 63 61 62 64 63 66 62 60 72 74 70 67 71 66
41 44 45 46 48 50 51 53 54 51 49 51 54 52 46 48 49 50 51 54 53 58 62 64 64 62 61 63 67 68 68 66 65 64 65 64 65 66 70 69 60 58 67 78 76 74 70
37 39 40 41 43 44 45 45 46 45 43 47 51 46 42 43 44 46 45 48 51 55 58 61 60 61 61 61 66 69 69 66 65 63 66 66 65 67 71 75 72 70 67 68 65 70 75
33 34 35 36 38 39 41 41 41 40 38 42 43 39 39 39 41 43 42 46 49 53 58 57 60 63 60 61 65 69 69 66 67 65 68 65 69 69 73 81 77 71 77 79 72 71 66
29 30 31 32 33 35 37 39 39 38 33 37 39 36 36 33 36 40 43 45 49 53 54 55 60 59 60 62 62 64 67 67 67 64 69 68 74 77 80 81 85 83 79 74 77 81 78
27 28 29 30 32 33 34 35 35 33 30 33 38 34 34 28 34 37 39 43 47 48 53 56 56 55 54 57 57 58 63 66 65 67 68 75 79 81 80 81 78 82 83 85 83 80 81
25 25 26 28 30 31 32 32 32 31 28 31 37 34 31 29 32 36 38 42 46 47 50 49 50 52 49 50 51 53 56 60 66 66 68 72 71 72 74 77 81 82 82 84 82 83 86
25 26 26 27 28 30 31 33 33 32 28 30 32 35 33 32 33 34 33 38 42 43 43 46 46 47 50 49 45 49 53 58 62 66 68 68 70 70 70 76 76 74 73 76 78 77 82
27 28 29 30 31 33 34 34 35 35 33 32 33 36 34 35 34 35 35 38 39 38 42 43 44 46 48 44 44 46 49 49 54 58 62 63 64 65 68 67 66 67 65 69 68 69 70
28 29 30 32 34 36 38 39 39 36 36 35 38 38 37 39 35 37 34 36 38 41 40 40 43 44 46 41 40 42 45 48 49 50 52 52 52 55 57 57 58 54 57 63 63 63 57
32 34 37 39 41 41 40 39 37 37 36 37 37 43 43 40 37 38 39 37 37 38 41 42 45 45 42 40 42 42 47 48 47 45 45 44 47 51 49 50 45 49 52 56 57 58 58

GFSGBSN_250_spd_090.txt.gz
Wind_Speed
88 90 87 89 89 90 87 91 87 85 79 80 80 79 75 74 76 78 79 79 79 82 81 84 82 81 79 77 85 78 86 85 79 72 71 71 76 82 83 73 64 62 61 61 64 53 48
89 95 94 91 90 87 84 84 85 88 84 84 82 85 84 81 79 80 79 82 82 82 86 84 84 80 84 82 86 86 82 82 80 79 78 78 78 79 80 78 73 67 65 60 61 56 51
91 92 96 95 96 91 90 87 88 88 88 89 85 88 89 89 91 89 90 85 86 90 90 88 86 85 82 94 89 88 80 77 78 77 77 80 78 81 81 82 78 74 67 64 61 59 53
96 93 93 95 94 94 98 95 93 95 89 91 93 89 91 92 91 91 93 91 91 90 93 90 89 85 84 90 89 87 86 83 80 81 81 83 81 84 83 86 85 84 73 66 65 63 54
94 94 96 96 103 106 101 96 91 94 94 90 90 96 94 91 94 95 94 94 91 91 93 91 91 88 87 88 87 91 88 89 86 84 83 86 85 86 88 89 90 84 76 71 67 68 60
85 88 94 100 95 94 102 97 98 99 95 92 90 87 96 95 92 97 101 100 97 94 93 97 92 95 93 93 95 93 94 94 94 92 94 95 93 93 91 91 87 87 83 76 66 73 66
92 93 94 89 93 89 99 99 99 97 92 89 89 87 86 94 89 101 99 104 109 98 93 94 93 96 95 96 93 93 95 97 100 99 97 99 98 91 93 97 93 92 84 71 72 73 62
100 101 104 103 101 98 94 95 94 97 92 90 86 83 84 85 91 102 103 104 101 101 95 99 97 93 97 99 95 100 100 101 100 98 101 100 98 99 100 96 94 89 80 70 75 63 59
119 118 118 115 110 109 105 105 100 100 98 99 93 91 94 92 92 97 104 104 106 106 103 91 101 99 101 101 99 101 105 105 104 107 107 107 103 104 101 99 91 79 77 69 65 59 56
104 100 103 108 118 113 114 116 114 107 107 100 104 99 100 98 93 89 93 96 104 105 108 101 99 97 103 107 104 105 109 107 108 106 109 108 103 101 93 83 82 68 72 70 64 57 50
95 96 95 96 98 97 105 109 111 106 107 112 108 108 107 98 91 93 87 91 94 99 104 108 99 93 100 106 104 105 111 111 109 109 112 99 96 89 77 77 74 66 65 57 58 56 54
91 91 91 92 92 92 94 97 99 96 101 102 98 95 96 96 98 99 96 98 97 97 93 97 98 95 99 100 103 106 111 111 109 109 106 94 92 81 76 70 67 59 59 54 60 53 47
80 82 83 85 88 88 89 89 89 90 92 95 94 91 91 94 98 98 103 106 104 100 97 100 103 96 100 103 102 107 109 110 104 98 96 95 87 75 67 64 61 54 53 55 61 54 42
69 70 73 76 80 81 83 84 84 86 86 84 83 87 87 90 94 95 98 100 96 92 98 107 101 94 95 101 100 100 101 93 93 91 88 78 70 66 58 52 50 52 53 59 62 54 53
60 61 63 65 68 74 77 78 79 82 83 81 80 80 82 86 87 89 92 88 84 87 97 96 96 90 88 95 86 86 84 84 79 76 71 65 59 57 48 45 48 49 48 61 66 62 57
53 54 56 59 60 64 69 72 73 74 75 74 75 75 79 79 82 82 80 74 78 82 85 87 84 83 81 82 76 77 75 72 68 64 60 54 51 48 45 46 48 47 56 63 61 61 56
47 47 51 51 51 54 57 61 63 66 65 63 66 70 73 77 81 76 73 76 73 76 73 75 72 67 71 71 66 67 63 60 60 53 50 49 46 46 45 47 52 52 59 62 62 61 56
43 43 44 47 47 47 50 52 54 56 58 61 62 67 69 73 70 70 71 70 69 69 70 72 59 66 70 63 62 55 62 59 50 52 49 43 46 46 46 51 52 56 63 66 68 69 60
40 39 38 40 41 43 45 48 50 51 53 57 61 65 68 64 65 63 61 60 61 61 64 66 57 66 70 60 59 60 61 49 52 52 47 49 49 49 49 51 55 56 66 68 66 75 66
36 35 34 35 35 38 40 42 44 47 50 52 57 59 58 57 55 55 54 55 55 55 56 58 58 59 60 55 59 58 58 51 53 53 52 52 51 50 53 58 59 63 61 70 68 69 72
33 31 30 29 31 34 36 36 38 40 41 45 51 50 46 48 47 47 46 47 48 48 49 50 53 52 55 55 56 55 55 53 56 54 53 53 53 54 54 57 60 59 57 61 67 67 73
28 27 26 24 25 28 30 31 32 33 35 41 43 42 40 41 41 42 42 43 42 42 42 45 47 50 51 50 50 52 51 52 54 52 55 54 56 56 58 59 57 55 56 56 58 63 68
25 23 22 22 23 24 26 28 29 30 32 39 41 39 35 36 38 39 40 39 39 37 39 41 45 44 45 51 50 48 45 47 49 54 58 57 59 60 61 61 58 52 61 63 56 58 64
22 20 19 20 22 23 24 26 27 27 31 35 38 36 33 34 33 35 35 36 36 36 37 39 41 38 42 44 48 47 47 49 52 55 57 61 62 61 64 61 60 64 61 65 65 62 60
21 20 20 20 21 22 24 26 27 29 31 33 35 34 33 31 29 31 34 33 33 34 35 35 37 39 39 41 44 46 48 49 53 53 57 63 61 61 62 64 63 63 66 69 73 76 72
22 21 22 22 23 24 25 26 28 28 29 30 32 34 32 31 30 28 31 32 31 33 32 32 33 33 34 39 39 44 46 50 48 52 56 60 61 60 62 64 65 69 68 72 77 78 74
22 22 22 23 24 25 26 26 27 27 27 27 30 35 34 33 29 28 29 29 29 29 29 29 36 34 35 37 39 40 43 44 45 47 50 57 60 61 65 64 66 69 71 75 76 75 80
25 25 25 25 25 26 28 30 31 31 31 31 33 36 36 36 35 26 27 29 28 28 28 31 32 31 34 35 38 40 42 41 42 47 50 54 57 61 63 61 65 68 74 69 67 68 70
27 27 28 30 31 32 33 34 35 35 35 34 36 38 38 42 44 28 32 31 30 29 29 31 33 34 33 35 37 38 40 39 42 44 46 48 52 58 62 62 63 63 66 68 64 62 64

GFSGBSN_250_spd_093.txt.gz
Wind_Speed
86 89 86 87 93 99 99 99 98 87 88 89 87 89 88 90 87 86 82 81 78 77 76 81 83 85 77 75 80 74 71 69 73 74 76 75 75 73 77 73 71 68 70 70 71 65 65
99 92 94 100 99 100 99 101 103 96 92 93 92 89 89 85 88 85 83 85 84 82 81 80 79 81 85 81 81 81 80 81 78 78 81 77 79 78 75 74 73 78 74 73 68 65 63
93 94 103 98 103 102 108 103 97 94 91 94 93 92 90 92 92 90 89 86 89 89 86 85 81 79 76 84 81 82 79 80 83 78 77 83 78 75 75 76 77 74 73 68 69 69 72
92 96 91 94 90 96 102 102 100 98 91 98 89 93 96 98 94 93 89 90 93 90 90 88 88 84 80 85 84 85 85 83 81 80 82 81 81 79 78 78 75 75 73 67 69 76 80
93 91 84 86 86 90 97 102 98 96 98 99 95 97 100 98 97 104 98 98 96 91 90 91 91 89 88 88 90 90 89 87 86 84 81 80 79 76 78 77 76 77 73 74 77 82 79
92 88 88 84 85 81 80 79 86 97 104 104 102 104 101 98 99 96 98 98 99 93 97 93 96 90 90 91 87 90 89 92 93 89 85 85 84 84 86 87 83 85 85 84 85 86 81
96 97 99 95 93 94 90 88 83 83 79 100 103 107 105 99 104 105 101 102 98 95 92 96 93 90 94 95 87 89 88 90 91 94 94 95 90 88 91 91 91 88 88 87 83 82 84
103 108 107 107 112 107 105 102 95 93 93 86 89 103 107 105 106 112 108 107 105 95 97 91 94 80 100 99 89 97 89 84 88 92 94 92 87 92 92 91 91 90 90 89 84 87 90
111 108 110 112 112 113 113 110 112 102 103 102 96 97 100 106 95 102 106 105 97 99 95 80 87 75 89 98 93 100 99 92 86 87 88 87 87 92 92 92 93 91 94 93 93 93 78
99 96 97 99 100 100 97 100 102 104 112 116 117 112 108 105 102 95 101 101 101 97 94 75 90 79 83 97 97 98 104 101 92 92 99 91 92 93 93 94 96 96 100 98 89 77 60
94 94 93 92 91 93 92 88 89 93 98 100 101 107 110 111 107 106 100 103 102 102 93 89 85 83 82 94 96 97 101 101 99 98 99 93 99 103 100 101 103 100 103 96 79 74 50
93 88 87 87 86 85 85 86 86 87 90 91 94 96 96 106 114 112 105 104 98 98 92 98 89 87 85 87 88 87 95 99 97 97 97 94 99 103 104 101 96 93 96 90 66 64 39
85 78 78 81 77 76 75 75 78 80 83 85 84 86 91 94 102 106 109 106 106 101 99 107 99 96 88 82 84 83 84 89 89 91 95 101 99 100 103 103 96 92 89 65 57 52 42
73 73 69 71 67 66 67 70 70 73 75 79 82 83 85 90 90 93 97 100 94 94 103 112 103 96 90 89 89 92 88 90 93 92 94 95 93 97 99 87 85 82 66 57 53 47 44
69 65 59 56 53 52 55 58 61 66 69 72 75 76 82 82 85 85 84 83 78 88 91 90 95 91 90 91 99 98 95 95 97 92 93 89 84 86 85 73 70 66 52 53 48 46 41
64 57 50 48 47 45 46 48 51 54 59 65 68 72 76 76 76 74 70 69 72 77 82 78 81 85 87 84 79 85 87 90 91 84 85 81 75 76 71 64 60 52 50 49 41 40 39
57 50 47 45 42 41 42 42 44 46 50 56 61 70 66 68 64 61 66 71 68 72 72 70 74 73 77 78 73 76 72 76 76 75 74 72 65 67 59 56 52 45 42 43 40 40 44
52 48 44 41 39 38 38 38 38 40 43 46 51 59 60 58 54 61 67 66 67 69 68 66 67 67 66 65 61 60 65 66 63 62 63 57 53 53 46 44 42 41 39 42 39 42 49
49 45 41 38 37 35 33 33 33 36 38 41 47 49 52 55 59 60 61 62 62 62 62 59 63 62 58 60 61 60 56 53 40 56 49 48 46 46 39 42 45 41 41 42 43 49 52
48 43 37 34 34 31 29 30 31 32 33 37 43 46 48 51 55 57 57 56 54 54 53 53 55 50 48 58 56 60 56 40 47 52 43 41 40 42 42 40 40 35 38 40 44 43 53
44 38 35 31 28 28 25 25 25 26 29 32 36 37 39 43 45 48 48 49 47 47 46 47 48 47 48 54 52 52 49 39 50 49 45 39 40 43 44 40 39 38 40 43 45 49 54
40 34 31 28 25 22 22 21 21 23 26 29 30 28 30 34 37 40 40 40 40 39 38 39 41 41 45 45 46 45 40 39 45 46 41 43 45 43 45 42 41 39 43 44 46 50 55
36 30 28 25 22 20 18 17 20 22 25 27 26 26 29 31 33 34 34 35 33 34 33 35 36 36 36 40 35 36 35 38 42 40 42 46 45 44 46 40 40 47 52 53 52 51 58
33 28 25 24 20 18 17 16 19 22 25 23 22 24 28 28 30 30 30 32 30 29 29 30 29 32 32 34 33 36 39 38 42 45 45 47 44 44 47 42 45 53 51 55 58 58 53
31 27 25 23 20 18 17 16 18 20 21 23 24 25 27 27 26 26 29 27 26 26 27 24 27 27 28 33 33 36 38 39 45 45 43 45 42 45 48 48 52 55 51 56 58 59 56
30 28 25 23 21 19 18 17 18 20 21 23 24 26 25 25 24 21 28 23 24 24 23 23 24 26 31 34 36 36 39 45 43 43 42 41 43 43 47 52 55 52 53 54 55 53 52
31 29 26 24 22 20 18 19 19 20 23 25 26 27 25 27 23 20 23 22 23 21 22 22 23 25 25 28 33 32 38 40 41 42 43 43 42 45 46 50 57 56 55 55 59 61 61
31 30 28 27 26 24 23 23 22 21 22 26 28 29 26 29 26 20 18 24 22 20 21 21 23 25 26 32 36 39 40 40 42 42 39 39 38 40 42 49 55 56 58 58 63 59 61
32 31 31 30 30 29 28 28 27 28 27 27 30 30 29 34 33 23 21 22 22 21 21 20 20 24 30 35 34 36 39 40 39 38 36 38 39 40 44 49 54 55 56 57 61 58 57

GFSGBSN_250_spd_096.txt.gz
Wind_Speed
94 95 93 90 96 98 89 85 89 91 89 91 90 90 92 93 93 94 89 88 87 83 85 83 80 76 71 70 76 71 72 75 72 68 69 67 70 67 64 66 67 62 66 61 61 68 65
96 101 101 96 96 100 103 102 96 95 95 98 99 98 99 98 98 95 96 93 89 89 90 82 82 83 80 76 83 77 76 78 75 74 75 74 76 74 71 67 70 65 62 66 64 69 70
97 98 93 88 91 106 102 94 89 89 90 92 97 102 102 99 103 99 99 93 94 91 89 85 86 82 77 87 83 84 81 80 80 83 81 79 75 68 67 65 63 64 63 65 65 66 70
92 98 99 96 113 102 88 83 79 82 89 92 100 99 98 100 100 95 93 94 96 96 87 87 83 81 79 86 80 86 86 87 85 83 82 82 77 72 71 69 67 67 68 65 68 71 71
102 104 104 103 87 80 77 76 74 73 79 90 93 97 98 100 96 97 96 94 97 98 91 87 89 83 85 84 83 81 87 92 89 87 83 85 83 81 79 79 72 64 66 67 66 69 68
100 100 98 90 88 87 87 88 89 88 84 80 79 93 98 99 103 103 100 97 98 93 89 90 88 88 88 88 88 85 85 87 93 92 88 87 87 84 85 85 79 82 80 73 74 77 81
98 97 91 87 94 96 99 103 105 100 97 98 95 87 83 82 90 107 105 102 101 99 95 90 95 93 91 90 85 87 89 89 92 90 93 93 88 84 86 89 91 89 82 78 79 82 86
101 95 91 92 97 97 102 103 108 108 111 110 110 104 101 92 84 92 93 100 104 101 97 97 97 91 97 97 87 89 93 92 92 94 95 88 84 88 90 87 86 83 81 81 85 86 82
95 93 94 95 96 99 100 101 99 97 95 94 99 98 96 100 100 93 90 92 98 105 104 102 102 89 99 103 88 92 100 98 94 91 97 91 89 92 91 90 88 85 82 80 81 82 82
92 90 91 92 93 94 95 93 90 88 87 85 85 90 90 92 106 104 101 89 86 94 96 94 105 102 99 98 91 100 95 95 95 92 95 93 88 92 92 89 89 81 82 82 78 81 81
92 89 89 90 92 90 88 88 85 80 80 79 76 81 83 89 93 101 103 99 98 92 85 87 98 96 94 104 98 94 95 90 90 92 89 86 88 92 93 91 95 82 88 88 89 87 90
88 87 88 89 89 86 83 84 81 76 74 73 71 72 79 87 86 84 94 102 106 100 95 94 94 94 89 87 90 86 88 87 86 89 90 88 83 85 88 91 93 90 91 93 93 93 90
85 88 87 87 85 81 75 74 72 69 66 63 62 66 70 78 80 82 84 88 98 105 107 105 101 101 98 89 90 89 90 91 87 86 85 88 82 82 83 85 87 89 90 94 94 92 88
86 85 84 83 76 73 69 62 60 58 57 57 57 58 67 67 71 77 80 80 81 89 103 99 98 101 102 99 94 90 88 91 87 86 83 80 77 81 82 79 83 85 87 86 86 82 80
82 81 80 74 69 65 58 52 49 48 49 48 48 54 57 59 64 67 70 72 75 84 86 86 88 81 95 99 94 93 84 86 88 87 85 85 78 78 79 79 78 79 77 81 76 58 53
80 77 72 67 64 56 49 45 42 40 41 42 44 48 46 53 56 58 62 69 73 78 77 77 75 72 68 86 92 96 93 94 100 97 96 92 82 84 85 85 82 81 82 75 64 50 42
77 72 67 63 56 48 43 40 38 35 34 36 41 36 40 44 48 52 61 65 66 66 66 66 69 67 65 68 78 86 84 81 90 96 98 89 82 90 81 82 79 69 68 63 52 42 37
72 68 62 57 50 44 42 38 34 32 31 32 33 30 33 37 43 50 56 56 55 58 58 61 60 64 66 66 65 64 65 68 76 87 87 83 76 75 68 70 63 58 59 49 40 36 37
69 65 59 52 46 42 40 35 31 30 28 28 25 27 30 35 41 46 48 50 54 53 51 55 58 60 64 66 58 58 57 59 64 66 69 65 57 61 60 57 53 52 48 39 32 34 35
67 63 56 48 43 40 36 32 29 28 25 23 21 25 27 32 37 41 45 48 50 49 46 50 52 53 55 54 52 52 53 53 55 57 49 43 48 53 51 47 46 44 40 34 35 38 43
63 59 51 46 41 37 31 29 26 25 22 19 17 20 22 26 32 36 39 41 43 43 40 42 42 42 44 44 47 48 45 56 49 51 44 48 49 46 44 41 42 39 33 32 38 43 46
59 56 49 42 38 34 29 24 23 22 18 14 15 16 18 22 25 28 30 32 33 34 34 37 37 38 40 42 43 43 47 47 33 38 45 53 45 45 43 38 39 38 34 39 44 46 54
56 53 47 40 35 31 25 23 21 18 14 11 13 14 15 19 21 23 25 27 26 29 28 30 32 34 35 38 39 41 42 40 33 39 50 46 43 46 43 40 40 42 40 40 42 42 53
52 49 43 38 33 28 23 21 19 15 13 13 15 16 18 19 18 22 23 23 24 25 26 29 29 29 31 34 34 36 37 35 35 46 47 44 45 46 44 41 41 43 41 43 43 45 52
48 47 41 36 30 26 23 20 19 15 13 14 18 17 18 20 21 20 23 19 22 23 24 26 24 26 28 31 33 35 38 39 46 48 46 47 42 44 41 42 43 41 39 43 46 50 56
45 44 39 34 30 26 22 21 18 18 16 16 18 18 20 21 18 22 19 19 21 22 22 21 21 23 27 30 31 34 37 43 44 46 46 40 41 41 42 44 43 43 44 48 51 50 54
43 42 38 34 31 28 25 21 19 19 18 18 19 19 20 18 19 20 21 22 20 20 19 20 21 22 25 27 31 39 40 41 45 42 39 41 41 42 41 43 44 45 49 51 52 54 56
42 40 36 33 31 31 28 24 22 22 21 21 21 19 19 19 18 19 21 20 19 18 17 16 17 20 23 27 32 35 38 39 40 41 41 40 43 41 41 44 47 49 51 52 53 54 57
41 38 35 33 33 33 31 29 27 26 24 24 24 21 20 24 18 17 19 19 16 18 16 15 16 21 26 29 31 34 39 41 45 46 45 43 41 40 41 44 46 49 51 52 54 54 56

GFSGBSN_250_spd_099.txt.gz
Wind_Speed
78 79 80 83 87 92 95 95 98 98 101 104 105 103 100 97 98 95 91 90 88 88 87 84 81 78 78 74 75 76 75 74 74 75 76 79 78 77 75 76 71 61 58 58 58 60 61
85 88 90 91 93 96 100 103 105 108 109 108 106 106 109 110 109 103 101 98 99 96 92 90 89 86 85 80 86 83 80 81 82 78 76 76 74 75 73 73 73 68 69 65 64 67 65
96 100 97 100 103 103 107 112 110 112 112 111 114 118 113 112 112 112 110 109 105 103 99 96 97 93 89 90 91 80 84 82 82 80 80 78 80 74 74 72 71 73 73 73 70 61 61
102 103 107 106 106 107 113 104 104 104 107 112 114 114 113 111 109 108 109 111 116 109 104 103 101 99 91 98 95 89 83 81 82 85 85 78 78 79 78 81 77 76 67 61 58 63 65
102 106 106 108 111 113 113 99 97 100 100 100 96 100 101 94 94 97 99 105 112 113 114 109 104 102 93 99 97 94 90 88 84 80 81 81 80 78 82 82 82 80 80 73 74 72 73
102 107 108 108 110 118 105 98 94 90 90 87 88 94 98 95 90 87 86 97 106 108 108 102 105 104 101 99 95 87 92 95 88 85 82 82 82 77 75 84 85 85 84 84 80 78 77
104 110 108 112 113 110 103 100 94 95 94 95 98 101 101 98 101 98 92 88 87 103 102 94 96 94 94 93 92 87 91 80 86 85 85 86 83 79 81 82 81 89 88 84 81 80 81
111 114 115 111 115 105 107 98 94 95 99 101 102 101 97 97 93 94 104 104 89 86 80 90 96 91 93 93 89 86 86 87 87 85 88 87 82 85 84 85 79 78 81 84 85 86 85
113 112 114 116 109 107 105 96 96 98 98 98 94 89 87 84 80 87 91 97 100 91 81 80 85 86 99 97 90 91 91 90 87 88 87 87 84 84 86 85 85 79 81 84 86 86 83
111 115 116 108 106 106 96 95 97 97 92 89 87 79 76 72 75 76 85 83 86 92 92 85 88 81 92 98 92 98 96 95 91 83 89 90 92 91 89 88 90 86 83 85 85 87 84
116 116 108 107 106 97 92 94 95 90 84 82 77 69 67 68 60 72 73 77 80 85 82 93 99 86 85 91 88 94 101 93 90 96 97 87 93 95 90 88 91 83 88 81 82 84 84
112 106 106 102 96 91 91 91 87 84 78 74 69 64 60 59 59 61 68 73 77 79 71 84 94 96 81 82 83 88 97 97 94 98 97 92 90 88 90 91 88 86 84 81 79 81 77
107 106 102 94 91 88 89 87 83 78 72 68 61 57 53 51 50 55 61 65 71 71 74 76 85 95 92 84 84 84 91 96 94 98 97 97 96 92 91 89 84 82 83 81 82 81 73
106 101 93 89 87 86 86 81 77 72 66 59 54 49 44 40 43 49 54 57 63 70 68 68 75 90 97 95 92 83 81 86 88 91 94 94 88 87 88 83 84 82 85 79 76 74 74
101 91 86 85 83 84 79 74 71 66 58 51 46 42 39 38 39 42 47 52 58 61 63 68 69 75 88 98 101 95 90 89 86 84 84 81 75 82 81 82 84 81 80 80 81 75 71
90 83 81 80 81 79 72 68 64 58 51 44 38 37 36 35 33 35 42 48 55 58 64 68 69 70 73 84 95 100 99 94 93 92 90 90 86 86 85 83 83 83 83 82 77 72 69
82 77 76 77 78 71 66 63 59 51 44 37 33 34 32 32 30 33 40 49 54 53 53 57 60 61 65 71 74 84 93 97 98 95 97 97 87 90 87 84 84 82 80 84 82 72 65
74 71 73 73 71 65 61 57 53 45 38 32 29 29 30 30 30 34 38 42 41 46 49 54 56 58 62 67 68 70 72 77 86 88 85 80 83 83 90 88 88 89 88 93 79 77 60
69 68 70 68 67 61 57 52 47 40 35 30 27 25 26 27 28 29 31 34 39 42 44 48 51 52 53 56 60 62 64 68 69 72 70 69 74 82 89 90 91 95 81 77 74 62 55
67 67 66 65 64 59 53 48 43 35 31 28 26 22 23 23 25 26 27 31 32 40 41 44 47 46 48 51 55 57 57 60 63 69 66 60 66 70 76 72 74 68 62 62 59 52 45
67 65 60 62 62 57 51 44 38 31 27 24 21 18 19 19 20 22 25 29 32 35 35 37 39 41 43 46 45 50 52 56 58 61 60 62 62 63 59 56 58 60 54 52 47 42 40
64 60 59 59 60 53 48 42 34 26 23 21 17 14 15 16 17 17 20 23 26 26 28 32 34 36 39 40 38 45 50 51 56 54 54 54 56 48 47 52 52 51 46 39 39 37 42
62 60 56 58 56 50 46 41 29 24 22 19 14 15 15 15 15 17 18 20 21 23 24 26 29 34 38 37 38 42 47 45 49 46 48 51 51 43 48 47 48 43 38 36 36 41 43
62 58 56 55 52 47 43 39 27 21 21 18 13 14 13 11 13 14 16 17 19 18 21 21 25 28 32 36 40 42 43 45 39 40 43 48 46 48 47 46 45 40 37 36 41 43 45
62 60 55 52 49 44 39 36 28 18 21 16 14 15 13 14 14 14 13 15 16 17 17 20 23 26 28 33 34 37 42 41 38 40 44 44 44 44 45 48 45 42 35 39 45 47 49
63 58 52 49 46 43 37 33 28 21 20 18 18 16 14 14 15 12 15 17 17 16 17 18 19 22 25 29 31 34 37 39 36 40 44 47 48 44 46 46 45 44 40 43 46 49 55
61 56 51 48 45 42 35 31 29 24 22 21 18 17 16 17 16 16 19 18 17 15 17 17 18 21 24 27 29 33 35 36 38 44 49 52 49 46 45 44 45 45 44 46 49 54 54
59 55 50 47 43 40 35 31 30 27 25 25 21 19 18 18 18 19 19 17 17 17 18 16 17 21 24 25 29 33 35 38 42 44 48 51 48 48 45 44 47 48 47 49 51 55 56
57 53 48 46 42 39 35 32 29 30 28 28 24 22 21 21 21 22 22 20 19 21 19 18 19 20 23 25 29 32 36 39 41 45 45 45 41 44 46 47 49 49 48 49 51 53 57

GFSGBSN_250_spd_102.txt.gz
Wind_Speed
73 73 73 72 76 77 82 86 86 88 91 92 95 96 98 99 99 103 106 106 106 102 102 98 97 93 89 82 77 84 79 79 78 76 74 71 68 69 68 70 71 68 67 70 72 74 75
75 76 78 79 81 86 91 91 94 97 95 95 94 101 99 106 101 107 106 108 107 107 106 105 104 104 98 85 94 92 85 85 82 79 82 79 77 76 71 71 72 72 71 72 73 72 71
76 81 83 86 89 93 97 101 99 100 99 99 102 105 105 101 108 110 102 100 105 109 106 103 103 105 104 92 103 96 95 91 88 86 83 83 84 80 77 77 75 72 71 69 70 73 72
86 85 87 92 95 99 103 102 104 102 102 105 109 110 104 108 104 103 103 99 103 105 102 103 105 102 100 109 110 104 102 97 93 93 89 91 90 84 77 78 77 74 73 68 68 73 72
88 93 96 98 104 103 106 105 102 105 106 110 110 110 111 106 99 95 95 100 104 109 105 103 103 102 96 108 112 112 107 103 102 98 96 97 96 90 85 79 79 76 74 71 71 75 79
93 95 97 103 102 101 104 106 106 108 115 113 112 111 105 103 99 95 95 94 100 104 104 99 97 97 95 101 108 114 113 111 107 104 100 98 98 93 91 88 77 74 73 77 75 75 76
102 102 102 101 103 103 107 109 111 113 111 113 110 107 105 103 98 95 88 89 97 97 95 102 85 79 88 97 102 106 110 112 111 106 102 102 101 92 89 88 88 85 84 81 78 74 73
106 103 104 100 101 106 109 112 111 112 113 112 106 105 102 97 92 88 83 85 85 84 81 88 101 75 82 97 94 101 103 101 111 109 108 103 96 94 88 87 88 91 89 77 74 75 73
108 101 101 106 107 111 110 111 112 112 112 108 103 100 94 89 85 80 74 75 81 81 71 76 87 90 89 91 85 89 88 98 98 101 101 98 91 89 93 89 87 90 82 78 76 78 76
102 103 107 109 111 110 107 112 113 111 107 103 98 91 83 79 76 73 70 68 74 78 67 64 81 83 100 99 78 85 88 93 93 93 91 87 84 86 83 82 84 81 81 83 81 80 75
106 108 109 111 109 108 110 113 109 105 101 99 92 83 78 73 68 63 60 62 67 68 62 71 75 76 92 103 85 78 81 85 85 88 90 86 84 86 80 82 80 77 81 81 82 84 83
108 107 109 108 108 108 112 109 104 99 96 92 85 80 75 67 61 54 53 54 55 62 61 68 71 74 78 98 90 83 79 75 83 85 86 88 83 82 80 84 84 84 81 85 84 81 78
108 109 104 106 105 108 106 102 97 93 92 86 81 76 69 61 50 44 43 44 49 48 57 63 68 70 73 87 97 90 87 81 76 78 84 90 86 84 88 89 90 90 89 89 89 84 78
106 104 104 104 104 106 100 95 90 88 86 81 75 70 61 50 44 40 38 36 39 48 53 57 62 65 66 74 90 96 91 90 82 75 75 83 84 88 92 93 95 92 89 87 88 88 82
103 105 104 103 103 97 92 87 84 83 80 75 69 62 53 47 41 36 34 34 35 44 50 54 58 61 65 64 74 85 93 97 91 82 75 79 83 83 86 88 92 91 89 91 93 90 89
101 99 101 100 95 88 84 79 80 79 73 67 61 54 47 42 38 35 33 31 33 40 48 52 56 60 63 66 68 72 81 92 100 96 83 75 77 80 85 85 86 89 91 89 87 81 82
98 98 97 93 87 81 76 74 77 73 66 59 53 45 42 37 34 31 29 28 30 36 41 45 46 52 58 59 63 67 72 82 89 94 86 78 78 81 80 81 85 85 85 84 79 75 75
95 94 92 85 80 72 70 71 73 66 60 52 48 42 37 32 30 26 24 23 25 29 35 40 45 48 54 59 60 64 65 73 82 87 90 86 81 80 81 80 81 82 81 82 83 83 82
89 89 83 79 70 66 66 66 67 59 52 47 45 40 34 29 26 22 21 22 23 28 33 37 41 45 50 54 56 58 62 64 72 82 90 92 90 89 92 91 86 87 86 89 85 89 77
86 82 77 68 63 63 61 63 62 53 46 43 42 35 30 26 23 21 21 21 22 26 32 35 38 41 45 50 52 54 57 59 61 68 71 78 83 88 93 97 95 92 94 93 87 75 70
82 74 67 63 61 56 58 58 58 48 41 41 38 31 26 24 21 19 18 19 20 24 29 33 37 40 43 45 46 50 53 56 60 64 66 66 65 67 68 75 80 76 72 70 66 62 61
74 67 63 61 57 55 53 54 56 46 39 37 34 28 24 21 18 15 15 16 15 20 25 27 30 33 37 41 44 48 48 52 58 57 60 61 62 61 63 66 64 60 57 55 52 50 46
67 64 60 60 55 52 51 52 52 44 37 36 29 24 21 18 14 13 13 14 16 16 20 23 26 29 34 38 42 45 47 52 53 56 56 56 55 55 57 56 55 55 49 47 44 40 39
65 62 60 58 55 51 51 51 50 45 35 33 27 21 19 16 14 11 12 13 14 17 19 21 24 26 30 35 39 41 45 48 50 50 51 51 50 52 52 50 47 49 47 42 38 38 39
65 62 60 58 54 51 51 50 48 44 34 32 25 19 18 16 14 13 13 15 15 17 18 20 20 23 28 31 34 38 41 42 44 43 47 47 48 50 50 46 45 49 45 38 35 35 36
66 63 61 59 54 51 51 48 46 43 35 29 26 18 19 17 15 15 17 17 16 16 16 17 19 21 24 27 30 34 38 40 36 37 40 43 45 45 45 43 48 48 42 38 37 35 35
66 63 61 59 55 52 49 46 45 41 36 28 26 20 19 18 17 18 19 16 15 16 16 16 16 19 23 25 27 30 33 36 33 35 43 43 44 44 44 46 48 47 44 41 37 36 36
66 63 61 59 56 51 47 44 43 39 36 32 23 24 19 17 19 20 19 16 15 17 17 16 17 18 21 23 26 28 30 32 33 35 43 43 43 43 44 46 46 44 42 40 38 39 40
64 62 61 58 54 50 47 43 41 39 35 36 26 24 23 23 24 21 21 17 19 18 17 15 17 17 18 21 23 26 29 31 33 38 43 45 45 47 46 46 43 43 42 41 43 44 46

GFSGBSN_250_spd_105.txt.gz
Wind_Speed
64 65 67 69 73 72 73 72 75 79 79 83 84 84 85 88 93 99 95 95 96 93 93 88 87 88 89 83 83 94 93 91 91 88 82 78 75 72 69 66 69 66 65 67 65 67 65
65 71 71 73 73 79 80 81 83 84 86 86 89 91 96 98 100 102 101 101 100 101 99 97 93 92 87 80 97 101 97 96 95 96 93 86 83 81 77 70 69 64 64 64 64 63 63
77 76 81 79 78 79 84 87 89 90 90 92 96 98 100 106 105 103 99 100 104 105 110 106 100 92 89 82 99 102 102 100 97 97 100 99 93 87 82 78 76 71 68 67 64 62 65
82 82 84 86 86 86 87 90 93 93 95 97 101 102 103 104 105 102 104 107 111 110 106 103 98 95 86 91 98 103 106 99 100 96 95 103 102 95 87 83 80 77 77 73 71 73 72
84 83 85 87 89 92 94 94 94 96 99 101 102 105 105 104 108 110 111 107 106 104 100 101 92 90 85 89 98 101 107 102 102 99 98 101 104 101 96 91 86 81 75 72 74 76 75
86 89 90 91 90 96 98 98 102 103 104 107 108 109 107 111 111 112 112 108 106 93 88 94 90 87 88 89 93 101 102 102 104 102 102 101 101 102 97 96 90 88 83 82 83 85 83
88 89 89 96 96 99 104 106 106 106 109 110 108 111 116 112 114 114 108 102 93 86 82 83 78 76 75 87 93 99 102 100 98 101 100 102 103 98 103 100 97 93 92 88 88 91 87
90 95 95 100 104 105 109 107 109 113 111 110 113 117 114 114 113 110 100 91 85 77 69 80 73 67 74 82 86 97 97 101 99 101 99 102 97 101 102 101 101 99 95 92 90 90 91
99 100 100 106 108 107 107 111 108 107 111 116 118 114 109 110 108 99 89 82 78 72 61 70 72 66 73 83 78 88 97 96 91 92 93 95 96 99 100 103 102 102 99 95 91 92 90
103 103 109 110 109 113 112 112 112 113 115 118 110 107 109 105 97 90 79 74 68 61 57 59 72 69 71 75 73 86 91 94 89 84 83 83 86 90 95 97 95 91 88 93 93 95 90
109 109 108 111 112 114 113 110 108 113 114 109 107 109 107 96 87 78 71 66 59 52 53 54 60 62 68 71 69 83 82 91 88 84 79 79 81 82 86 85 94 88 89 92 96 92 80
110 110 109 112 113 112 108 108 112 112 108 106 108 107 96 89 80 70 63 60 53 47 43 47 54 57 61 64 67 71 78 80 91 89 79 78 80 79 81 83 83 78 79 84 81 68 73
108 108 108 110 107 107 109 110 110 106 103 103 102 95 89 82 74 66 56 53 47 41 37 40 45 52 55 59 62 65 70 76 91 89 81 80 77 78 81 83 84 82 82 82 80 77 73
106 109 109 107 108 111 110 109 103 100 99 98 90 87 83 77 68 62 51 45 41 35 34 38 41 47 52 56 60 64 68 73 77 91 83 76 75 76 78 79 81 81 81 80 76 73 74
103 105 109 108 106 105 103 101 95 95 93 87 83 82 79 71 64 55 46 39 34 31 29 33 38 45 50 55 59 63 67 69 74 83 87 76 73 75 80 80 81 80 79 80 79 73 71
103 102 102 102 102 103 99 92 91 89 85 80 77 79 72 67 59 47 40 35 31 27 26 30 34 40 47 50 55 61 65 65 70 78 90 81 75 74 73 76 79 80 81 79 77 74 74
98 100 98 96 98 95 89 87 84 83 78 73 73 74 69 60 51 41 35 33 29 26 26 25 31 37 43 49 54 59 63 66 68 74 89 88 84 79 75 74 73 73 80 85 83 80 81
92 94 94 91 86 84 83 80 79 78 70 68 70 68 61 53 44 36 32 30 28 25 24 24 28 34 42 48 52 56 58 61 64 71 83 90 88 88 84 81 76 72 70 75 76 75 74
89 85 84 82 80 79 78 74 75 71 63 66 63 62 53 45 38 32 29 28 25 22 20 22 27 33 40 45 49 52 56 59 60 67 78 87 90 90 87 85 83 77 71 69 71 72 68
85 81 79 79 79 76 71 71 70 63 59 62 58 54 46 38 34 29 26 26 22 19 18 22 26 33 38 42 46 50 53 57 61 61 66 74 82 86 88 88 88 85 77 71 70 70 68
80 78 80 82 77 72 70 67 60 59 57 57 52 46 40 34 31 27 23 22 20 16 18 21 26 32 36 41 45 48 50 52 55 59 62 64 66 70 75 78 80 84 84 78 74 72 72
81 81 81 76 71 68 64 59 56 56 55 51 46 40 36 32 28 24 22 20 17 15 16 19 23 27 33 38 41 42 45 48 52 55 59 61 58 59 63 70 72 73 79 82 82 80 79
83 81 76 73 70 65 61 53 53 54 52 48 41 35 33 30 25 20 19 17 14 15 18 19 21 25 29 32 36 40 43 45 48 53 56 56 55 56 57 63 66 70 76 79 81 77 71
80 77 73 69 66 59 56 51 53 50 49 45 39 33 31 27 23 18 16 15 14 14 14 16 18 22 25 29 33 36 39 43 46 49 49 51 52 53 53 55 59 58 61 61 58 53 52
73 70 66 63 61 59 54 52 53 47 45 44 36 34 30 25 22 17 17 15 14 14 14 16 17 20 22 26 30 33 36 40 42 45 48 46 45 48 51 53 54 57 57 53 49 48 46
68 67 65 63 60 55 54 53 52 44 43 43 33 33 29 24 20 18 17 16 16 15 16 16 17 20 21 22 24 28 32 35 37 42 40 38 41 45 46 48 50 50 48 46 46 42 39
70 68 66 62 59 56 56 54 51 44 42 43 33 31 28 24 20 20 18 17 17 17 17 17 18 19 20 20 21 23 27 33 37 37 32 35 41 43 44 45 46 46 45 47 41 37 36
73 70 66 64 63 60 58 55 51 45 41 42 35 29 28 23 24 20 19 19 19 19 18 18 16 17 18 19 21 22 24 28 32 35 32 38 41 42 44 47 46 43 46 45 40 40 40
74 71 70 68 66 64 59 56 51 45 40 40 39 29 27 27 24 22 22 21 23 21 22 17 19 18 17 17 19 22 24 25 27 31 35 41 39 38 41 44 43 44 46 43 40 40 40

GFSGBSN_250_spd_111.txt.gz
Wind_Speed
69 62 64 65 66 68 68 67 67 69 69 67 68 70 76 78 78 79 82 85 84 83 84 85 86 85 88 91 91 99 92 92 91 92 90 89 89 90 81 84 82 71 69 70 71 72 70
75 70 68 69 69 71 71 72 72 72 74 75 75 77 77 79 84 87 88 92 92 93 94 95 94 95 96 93 98 100 102 100 101 98 98 94 93 92 90 89 86 83 78 72 72 71 75
77 76 74 74 75 75 75 76 77 77 80 81 81 82 84 86 88 90 91 96 96 94 94 97 98 102 103 93 99 96 98 104 106 105 104 100 96 92 90 92 89 88 86 82 73 73 77
80 80 79 80 79 80 81 79 83 84 85 86 88 91 93 94 94 94 97 95 96 100 103 105 105 105 101 99 94 95 100 97 102 105 102 102 99 92 93 93 93 91 89 85 74 78 78
80 82 81 83 83 84 85 85 86 87 88 93 92 94 96 99 100 103 104 106 105 104 103 110 113 107 102 96 94 93 97 100 104 106 108 106 102 96 97 94 94 92 86 84 85 84 83
77 82 80 80 83 82 88 87 88 89 92 94 97 98 101 103 102 101 96 96 101 105 109 116 110 105 96 95 97 95 101 106 107 109 112 107 105 100 97 95 91 85 94 91 89 90 89
82 77 83 83 81 83 78 79 83 84 87 86 89 96 94 92 94 99 103 105 107 112 110 113 107 102 96 100 97 97 106 107 106 110 108 103 108 100 87 94 93 99 99 98 93 95 93
83 85 90 80 83 84 82 84 85 84 87 89 89 93 95 99 101 105 105 109 111 110 105 110 102 104 100 97 93 94 99 99 100 102 105 109 109 86 98 99 97 100 100 91 91 101 98
95 94 95 89 92 86 88 91 85 85 87 89 93 96 97 102 105 107 110 111 108 107 105 96 98 95 89 89 85 84 85 84 84 91 95 101 86 99 104 100 98 97 92 89 95 103 98
83 92 96 97 88 92 89 90 88 88 93 95 98 103 103 105 108 108 109 109 105 102 99 94 92 81 81 77 74 73 72 73 75 76 82 88 86 95 94 93 94 90 86 93 96 102 96
94 92 96 101 95 90 94 93 92 96 97 100 105 102 104 107 108 107 106 103 102 100 94 89 83 76 66 66 66 61 58 58 61 65 74 72 83 88 85 81 84 81 84 86 89 93 98
93 93 88 89 89 92 94 97 99 99 100 101 101 104 105 107 106 105 101 100 100 94 91 86 75 67 60 55 53 51 48 48 54 57 61 67 74 77 78 83 81 83 77 77 80 81 92
96 95 94 92 94 98 101 103 96 97 100 101 106 105 105 102 101 98 98 99 95 91 85 76 67 58 51 46 41 42 41 43 48 54 52 62 70 71 74 76 76 75 74 74 71 72 71
98 102 101 98 102 99 99 98 101 103 104 105 101 106 103 100 97 97 98 97 92 86 76 67 58 50 41 41 36 36 38 38 41 46 49 58 58 63 66 69 72 76 73 75 70 65 66
108 104 106 106 99 102 101 101 104 104 102 101 101 103 97 96 95 95 96 93 86 77 68 59 48 44 39 36 32 34 36 35 39 44 47 51 56 63 64 70 74 75 70 72 68 62 63
110 111 113 110 108 109 107 103 101 102 102 98 99 96 92 92 90 91 91 88 77 69 62 50 44 38 35 31 30 33 34 33 36 40 44 50 57 57 61 66 71 72 73 69 64 56 56
106 109 111 108 106 105 107 104 106 100 97 96 94 90 89 86 87 87 85 79 68 62 54 46 40 33 29 26 30 32 28 31 34 40 44 49 52 55 58 61 70 70 73 68 63 56 52
102 102 104 105 102 99 99 102 97 93 93 91 89 86 84 83 81 80 78 71 62 56 48 42 36 28 25 25 29 30 24 28 33 39 44 47 51 53 57 60 67 72 75 71 62 59 57
96 100 100 100 99 100 96 94 93 91 85 84 83 80 80 78 75 74 70 63 57 50 45 36 31 23 22 24 25 25 24 25 31 38 44 47 53 55 58 60 64 70 76 73 68 64 60
93 97 95 93 91 93 91 87 87 85 83 80 78 77 75 72 70 66 63 58 53 45 38 33 24 20 19 23 23 24 25 27 29 36 41 45 54 57 58 60 64 66 77 77 75 67 62
92 91 90 88 88 82 80 82 83 79 73 74 72 71 71 68 63 60 57 54 49 41 31 27 22 17 17 20 22 24 25 25 29 36 39 41 49 54 57 58 62 68 73 80 77 72 68
82 82 79 77 75 76 76 74 73 74 69 69 67 66 66 61 58 55 53 49 43 34 26 21 19 19 18 18 21 24 26 26 30 36 36 38 45 49 51 52 56 58 62 77 79 78 70
79 78 75 74 73 71 70 70 69 67 66 68 64 62 60 59 57 52 48 42 37 29 23 17 16 16 17 18 20 24 26 27 27 34 36 38 43 47 50 53 53 56 60 68 79 79 75
78 77 76 74 71 69 68 68 69 68 67 63 60 59 59 57 54 47 45 40 32 26 20 17 14 14 15 18 20 22 24 26 29 33 35 37 43 45 49 49 51 51 57 64 74 78 78
74 72 71 69 70 67 65 65 65 64 64 60 57 58 56 51 46 42 38 35 30 26 20 17 15 16 16 17 18 19 21 25 28 30 32 37 39 44 46 46 50 50 52 56 64 73 81
71 69 68 66 65 64 62 64 63 61 61 60 56 51 49 41 39 39 35 33 29 26 22 18 15 15 16 16 17 16 18 21 25 28 30 35 38 40 43 47 50 50 50 51 54 59 67
70 69 67 65 65 64 65 64 63 63 60 57 51 47 42 37 35 36 36 32 30 27 23 21 18 15 15 15 15 13 14 17 23 29 28 30 35 38 41 44 47 48 50 52 50 55 59
70 70 69 67 67 67 63 61 58 56 54 52 45 42 39 36 35 34 38 35 31 28 25 22 21 18 16 15 16 14 14 16 20 23 26 29 31 37 40 42 44 45 48 51 48 54 49
68 69 68 65 62 59 57 55 54 51 50 49 46 41 40 38 36 37 36 39 34 30 26 24 22 21 18 15 15 17 16 16 17 21 24 27 29 33 37 39 41 42 45 47 49 50 51

GFSGBSN_250_spd_114.txt.gz
Wind_Speed
69 66 67 63 64 68 67 67 68 68 68 69 69 70 71 71 71 75 73 73 75 78 81 82 82 82 81 82 88 91 86 88 90 92 93 93 95 96 91 90 90 84 79 77 75 74 71
74 76 79 75 70 68 71 72 71 72 73 74 75 76 76 79 80 80 80 83 84 84 85 85 83 86 86 87 93 93 95 95 96 99 97 101 102 106 101 100 97 91 90 84 84 76 75
82 83 81 81 76 69 70 71 72 79 77 78 80 82 81 83 86 86 86 89 89 89 92 94 92 92 93 94 98 97 98 100 105 102 103 106 106 111 108 110 106 101 99 93 86 78 80
87 85 84 86 83 82 77 74 72 80 82 82 85 85 85 87 89 91 93 94 95 97 97 100 101 100 98 101 102 106 109 109 112 111 112 113 117 113 111 110 112 108 106 96 78 86 88
86 87 89 91 88 88 86 78 67 71 84 83 84 85 86 89 92 95 96 98 100 101 103 107 104 107 111 109 110 106 108 110 109 115 112 111 113 113 110 107 107 112 102 95 89 94 89
75 78 78 87 87 89 77 73 68 68 71 75 85 90 89 91 92 94 95 97 99 99 101 107 106 113 106 100 102 100 104 104 101 103 107 111 112 113 112 111 107 90 96 96 88 88 89
84 89 84 84 84 80 74 73 75 74 77 81 87 78 79 80 82 84 91 90 91 92 97 95 99 99 101 98 97 99 100 98 98 99 102 108 118 118 105 98 92 97 102 99 95 91 95
90 89 91 94 89 82 76 77 79 76 79 85 89 90 88 87 89 87 86 87 92 98 99 104 102 101 98 95 88 97 99 101 99 99 99 102 111 102 95 93 105 102 107 106 101 96 105
92 93 97 95 91 91 88 88 88 89 88 95 92 94 98 95 92 91 96 94 100 100 103 98 98 99 98 89 92 90 96 96 93 91 92 91 89 90 94 101 100 101 106 102 97 97 105
95 94 92 87 86 82 87 90 84 83 84 87 94 94 102 102 94 98 100 101 99 99 99 96 96 91 93 92 89 89 79 80 78 78 77 73 77 80 89 93 93 93 96 97 99 101 99
104 100 97 94 88 83 83 83 87 86 90 92 92 95 97 96 98 103 105 103 100 100 100 100 96 90 92 90 79 78 70 68 66 61 61 60 62 71 78 77 80 79 92 96 100 97 89
106 106 104 103 96 89 89 91 88 94 97 93 95 95 99 100 104 108 109 105 103 105 104 100 94 90 87 81 74 64 63 57 56 51 51 54 50 60 64 68 74 76 86 88 86 86 87
100 94 92 98 96 88 88 88 88 92 97 97 95 99 101 106 108 110 110 110 105 106 102 94 90 86 81 75 68 60 55 50 46 42 41 41 47 52 56 61 64 68 70 73 75 77 75
98 95 94 96 98 91 86 88 90 90 90 95 99 104 108 108 112 115 111 110 103 103 95 91 83 82 74 67 63 55 45 42 39 30 28 34 41 46 54 57 57 53 60 61 66 66 67
106 97 95 98 94 91 88 92 93 96 95 96 101 104 105 111 115 113 109 102 103 97 91 82 80 74 67 62 53 46 37 36 32 27 27 31 35 41 46 51 54 53 53 60 62 61 61
90 95 99 101 98 97 92 94 97 102 100 100 107 109 113 116 116 113 104 100 94 91 84 79 75 65 60 53 45 39 30 29 26 21 25 31 35 36 37 42 48 48 57 61 58 57 56
87 95 104 104 105 102 99 102 105 107 107 109 112 110 109 109 107 104 101 91 87 84 76 74 66 57 50 46 42 32 22 23 21 19 23 28 30 35 35 40 48 49 52 57 58 59 55
80 89 98 102 106 104 106 106 106 108 111 105 110 107 103 101 98 92 87 83 80 79 71 65 57 49 44 42 38 31 16 20 17 18 21 26 30 32 41 45 46 50 55 61 61 57 55
84 87 91 97 101 103 102 107 108 109 108 108 102 99 98 93 88 84 80 79 76 72 64 55 50 43 41 38 34 26 17 17 16 16 21 25 31 31 38 44 46 47 55 60 60 61 56
86 88 91 91 97 100 100 104 105 104 97 91 89 89 88 84 80 75 74 72 70 63 57 49 46 40 36 31 29 23 18 14 16 18 22 26 35 40 45 46 51 52 53 59 61 58 61
96 92 89 87 90 93 97 100 99 86 84 81 82 79 76 74 73 68 66 65 64 56 50 48 43 38 29 25 22 22 17 14 17 19 24 30 35 40 50 57 51 50 51 56 60 61 63
98 101 96 100 96 92 90 85 83 81 79 79 72 68 68 67 66 63 60 59 58 52 46 45 40 31 26 21 20 17 16 12 16 22 28 31 34 36 43 46 47 47 51 54 60 64 68
94 91 94 96 95 86 85 83 78 76 72 71 67 66 65 61 62 59 56 55 53 49 44 40 35 30 25 20 18 15 14 12 13 22 25 30 33 34 39 42 45 46 51 49 53 65 67
97 93 97 96 91 85 79 75 70 69 68 64 63 61 60 58 56 56 54 51 48 47 41 36 31 26 22 20 19 17 14 11 13 18 24 27 33 36 39 41 46 48 49 50 54 56 65
79 77 77 78 78 77 76 75 70 70 68 64 61 59 55 55 53 53 51 46 44 43 39 31 29 25 21 20 19 17 17 15 13 17 23 26 31 36 40 41 44 50 50 50 50 57 64
76 74 75 77 77 71 70 68 67 65 61 58 56 52 53 50 54 52 47 44 41 39 35 30 26 24 19 20 19 16 15 17 16 17 21 26 30 35 40 42 43 45 50 50 51 55 61
73 71 70 70 70 67 65 62 61 58 56 54 52 51 53 53 52 49 45 42 39 36 33 30 25 25 20 20 20 17 14 15 16 14 13 22 29 33 37 41 42 44 49 51 54 53 57
73 72 70 66 64 62 61 58 57 55 54 53 52 54 52 48 47 44 43 42 39 34 32 30 27 25 23 20 19 18 16 15 14 16 17 25 26 31 37 42 43 44 45 49 52 53 55
70 69 68 66 64 61 59 56 55 54 54 54 55 50 47 46 41 43 42 43 40 36 32 30 28 26 24 22 20 19 18 15 16 16 17 20 24 30 34 37 36 36 39 43 48 50 51

GFSGBSN_250_spd_117.txt.gz
Wind_Speed
57 56 59 57 59 60 58 62 63 65 63 65 65 64 64 64 65 72 73 73 73 75 75 74 73 75 76 75 80 79 77 79 80 83 83 85 87 91 88 91 96 89 88 89 85 83 75
63 62 62 64 63 64 66 66 68 72 70 66 64 65 66 66 70 74 77 79 78 79 80 80 80 80 80 85 86 87 87 84 89 90 87 91 95 100 94 93 96 93 93 93 95 85 83
69 67 66 67 68 69 72 72 72 72 72 71 70 70 67 71 72 75 82 82 83 86 86 85 84 83 86 88 88 90 92 93 94 96 97 101 105 107 108 108 109 105 106 99 92 83 90
78 78 75 74 73 75 73 76 77 78 77 77 77 74 75 77 71 73 82 84 85 87 88 88 88 88 92 93 95 97 99 101 103 105 105 107 111 111 113 113 112 118 120 108 90 93 98
84 84 79 78 77 81 82 81 82 82 82 82 83 80 81 75 71 70 76 82 82 87 89 89 90 92 95 96 99 102 106 107 110 112 112 117 121 125 127 125 123 123 119 110 102 105 106
92 92 86 84 84 82 80 81 82 81 80 79 80 77 76 67 67 70 75 77 81 77 85 85 84 90 92 92 96 107 111 111 113 115 110 115 128 129 125 125 124 117 119 117 112 101 108
95 97 92 92 88 81 78 81 80 81 81 83 80 70 71 73 73 75 80 83 83 87 89 88 84 80 85 83 84 94 96 92 99 102 104 108 113 110 113 116 117 117 118 116 110 105 111
104 99 99 97 93 82 82 81 87 86 88 84 85 84 83 77 80 82 86 91 93 92 92 90 87 87 86 83 84 96 95 95 101 100 104 98 98 106 107 108 111 108 107 106 102 105 112
107 103 101 101 92 90 87 85 87 90 89 85 79 83 85 86 89 94 97 96 92 94 99 95 94 92 92 92 93 90 95 95 97 94 93 94 99 99 101 100 102 99 99 95 92 97 108
105 104 105 98 94 92 88 84 88 91 92 92 85 89 88 86 88 93 95 97 94 102 106 101 96 99 95 92 97 92 91 82 83 88 85 83 84 83 83 81 81 79 82 88 94 95 102
105 109 104 98 94 92 91 89 87 89 91 86 81 82 87 87 91 95 94 95 96 101 105 102 102 97 95 94 87 95 88 74 75 74 72 68 66 65 64 66 67 64 72 79 86 96 94
110 108 102 99 92 90 88 89 91 92 89 87 87 83 89 87 88 95 93 96 101 106 107 108 103 99 101 100 92 87 82 73 64 62 59 54 53 49 48 48 51 59 68 76 78 84 84
99 98 94 95 93 88 88 86 85 92 88 84 86 89 89 91 91 96 98 103 105 107 107 111 109 109 102 100 90 82 77 66 60 55 49 48 45 43 39 37 44 52 60 63 71 69 72
93 95 99 96 93 89 91 89 87 88 92 95 92 96 93 94 94 99 103 103 103 110 113 112 109 107 100 92 83 74 65 60 53 46 42 37 36 38 32 34 39 44 41 48 47 52 59
84 96 96 94 94 92 91 93 87 85 87 94 92 91 95 94 94 97 97 103 107 112 117 114 114 101 92 83 73 63 58 56 43 38 36 32 27 25 27 27 23 31 33 35 37 44 53
91 91 96 88 84 83 92 94 88 84 83 86 91 90 94 92 91 96 101 105 110 114 115 109 102 88 81 74 63 56 48 46 37 33 32 25 23 21 24 23 23 33 44 44 46 46 48
83 94 81 78 79 84 87 95 91 85 86 89 94 95 97 95 94 99 101 105 114 114 111 103 90 79 70 65 56 47 38 38 35 26 26 20 18 19 21 26 27 30 28 34 41 44 40
66 66 72 76 69 70 78 90 95 93 94 92 94 97 94 98 96 100 105 111 115 112 104 88 78 69 64 55 47 39 32 32 31 25 21 17 18 20 18 24 29 31 34 39 36 35 39
65 57 54 56 59 65 76 79 85 88 89 94 99 97 101 99 100 105 109 109 101 100 86 77 69 62 53 45 40 34 29 28 27 24 20 18 19 21 23 26 29 32 33 36 37 39 42
65 63 61 61 61 61 68 76 77 78 79 86 91 97 100 103 104 103 102 100 89 77 74 68 60 52 43 41 36 31 23 22 22 21 19 19 19 22 26 30 32 35 36 35 39 42 46
72 70 65 66 66 67 68 68 70 70 72 77 80 79 83 87 88 90 77 71 68 68 66 62 52 43 38 37 32 27 18 17 18 19 20 20 19 21 27 29 33 36 37 37 39 44 49
80 77 73 73 69 70 68 69 73 74 75 74 75 78 79 78 75 72 67 66 63 61 58 54 47 37 38 34 29 24 16 14 16 17 21 21 22 25 30 32 33 37 39 40 45 51 54
84 81 80 78 78 77 73 75 76 79 81 80 79 80 85 83 77 67 61 60 60 55 53 47 43 40 40 33 24 21 16 11 13 17 19 22 23 27 28 31 33 39 42 43 47 53 55
87 81 80 79 82 85 82 80 81 82 85 81 84 82 75 78 67 60 57 56 51 51 48 45 39 39 38 32 24 18 16 12 10 17 19 21 26 28 29 32 34 39 43 46 50 56 57
89 89 84 80 82 81 82 81 82 80 79 78 85 83 74 70 67 60 55 50 47 47 45 41 40 40 38 33 25 19 13 12 11 14 21 23 27 33 33 34 38 43 42 45 49 60 50
90 92 92 90 88 88 87 80 79 84 82 79 84 71 63 59 56 52 51 47 44 44 41 39 39 39 36 32 26 23 16 13 9 10 15 23 27 32 38 40 41 44 42 43 46 51 54
91 90 91 86 87 87 88 82 79 82 82 73 65 60 59 54 52 49 47 44 45 40 39 37 37 38 36 31 26 24 20 15 12 11 16 22 28 33 34 39 41 45 47 47 49 51 50
80 78 80 82 82 82 85 89 82 72 69 64 61 60 55 48 48 46 44 44 39 37 38 36 36 37 35 29 27 24 23 19 15 14 16 20 24 28 33 37 39 39 43 48 49 50 53
76 77 75 71 70 69 70 67 66 64 59 55 52 51 50 48 43 43 44 41 38 36 38 36 34 35 33 29 26 23 23 22 20 17 18 19 23 26 29 32 36 37 40 42 44 48 52

GFSGBSN_250_spd_120.txt.gz
Wind_Speed
67 64 65 61 59 60 57 54 55 55 55 55 54 56 57 61 62 63 63 60 61 60 59 61 65 72 77 77 77 76 77 77 77 77 79 82 82 83 81 81 84 80 82 82 80 75 75
69 68 67 60 63 60 59 57 57 58 60 61 61 59 62 63 62 66 63 60 65 63 66 67 69 72 75 79 80 81 80 81 83 84 87 89 91 92 90 91 92 93 92 87 89 79 80
71 71 70 66 62 63 64 62 62 63 65 65 65 65 65 65 66 66 69 65 68 68 66 70 64 69 73 78 77 80 83 82 83 87 91 94 95 96 98 99 100 102 102 100 92 89 90
77 76 76 73 68 69 71 71 72 71 70 71 72 69 68 69 69 69 70 69 75 72 71 67 62 67 69 74 79 78 79 81 84 87 92 97 102 103 105 106 109 112 115 109 97 101 97
80 81 81 78 75 75 78 81 80 80 76 77 77 75 76 76 76 74 77 76 77 75 72 71 61 72 68 74 82 82 80 83 87 91 91 93 99 101 104 114 118 117 122 120 110 109 110
85 87 88 85 87 86 86 85 88 85 86 86 83 83 81 80 80 75 77 78 79 78 77 72 65 75 76 79 76 72 75 81 81 85 86 90 89 96 101 111 121 120 127 122 115 111 117
91 89 92 93 93 92 92 93 91 90 88 87 87 86 80 79 76 75 77 79 83 83 80 76 74 78 81 85 89 88 85 77 78 77 84 91 94 103 104 113 123 119 116 114 108 106 112
96 98 98 96 102 97 98 101 96 92 92 91 85 85 80 78 74 79 81 82 85 84 73 78 78 84 87 88 94 95 90 89 88 84 89 94 97 107 108 109 116 115 112 107 102 104 108
104 101 106 108 108 107 108 103 105 97 95 93 86 85 85 80 75 76 83 86 85 82 85 86 84 93 93 92 97 94 96 96 99 98 97 93 99 102 102 101 107 105 104 97 95 98 102
111 109 113 110 108 107 108 105 105 100 97 93 86 83 86 82 78 79 79 81 86 89 91 90 90 91 98 99 104 102 98 100 99 94 91 90 90 89 89 89 95 91 100 87 85 87 93
106 111 105 109 107 105 105 104 104 99 97 90 85 84 82 86 85 83 85 87 89 87 86 86 96 97 98 104 103 106 105 102 97 87 82 83 82 78 74 73 76 73 73 72 74 73 84
105 101 103 108 107 106 104 104 106 97 97 91 87 83 80 88 86 82 85 84 88 91 95 94 97 102 104 108 106 104 102 96 84 79 76 78 71 64 62 59 58 58 59 62 63 64 66
91 94 100 103 94 98 101 104 103 98 91 88 85 89 84 86 85 85 86 85 85 88 92 93 96 104 110 115 112 106 99 94 80 75 72 67 60 57 51 47 47 41 42 45 49 50 51
78 84 81 88 94 98 100 100 97 93 88 86 83 86 87 87 87 84 82 86 91 94 96 104 106 108 111 114 110 106 102 89 74 67 61 60 56 47 43 41 37 34 33 38 40 42 42
66 79 83 90 94 100 100 101 101 94 91 77 76 82 82 83 78 81 84 86 88 93 100 100 105 112 112 113 111 106 90 77 71 60 58 53 46 40 36 36 33 31 31 32 31 29 29
69 71 77 85 85 94 94 92 88 92 94 84 79 76 83 87 83 86 84 83 85 86 95 99 100 107 112 116 113 91 78 70 64 56 51 43 39 34 32 29 27 22 21 28 30 29 28
61 68 72 78 83 89 90 89 89 86 80 76 79 78 80 86 85 88 87 84 86 88 94 103 104 110 114 111 97 78 64 61 57 48 41 36 33 30 29 26 21 22 23 25 29 33 32
62 61 58 67 73 82 81 87 84 81 82 74 68 76 85 87 82 80 83 85 87 95 98 103 108 109 109 97 79 63 54 54 48 37 33 32 32 30 26 21 19 20 25 27 34 36 35
65 64 63 60 67 75 73 74 68 69 66 65 69 75 78 77 87 90 91 92 93 96 100 101 100 98 86 72 62 53 47 42 36 31 30 29 29 26 25 18 16 22 28 33 34 35 34
68 61 60 58 61 63 76 75 77 80 72 69 59 61 62 67 74 83 90 92 93 89 83 77 82 75 65 54 52 46 38 35 31 27 26 25 29 25 19 15 19 22 29 31 31 33 35
61 63 54 56 54 54 54 59 64 69 68 59 58 59 63 65 66 71 76 74 71 73 73 78 74 62 53 46 40 34 35 30 29 26 22 21 22 23 20 19 21 27 29 27 26 34 38
62 47 48 52 56 53 51 50 49 52 47 47 50 52 54 56 57 59 62 62 73 69 71 67 64 54 47 40 34 30 30 27 24 23 20 20 19 23 20 20 24 29 32 32 33 33 41
67 67 63 58 57 56 55 50 51 47 47 51 56 58 58 57 57 59 66 69 70 68 64 62 55 49 44 36 30 31 32 26 22 23 18 18 18 20 20 23 25 31 35 36 37 41 48
73 70 71 64 60 56 55 55 54 53 54 57 60 59 64 63 62 64 68 64 64 67 59 55 48 46 39 34 30 27 29 26 21 22 21 16 17 20 24 26 31 36 38 40 42 47 52
70 73 75 72 65 62 58 61 60 59 62 63 64 63 65 63 67 68 68 70 70 57 52 48 45 46 37 33 27 27 25 25 23 19 19 16 18 21 27 29 32 36 43 43 46 47 50
72 72 74 75 70 67 67 68 67 66 69 68 66 68 65 65 65 67 63 70 57 51 50 43 44 42 37 32 30 27 25 21 21 18 18 17 17 21 27 30 33 35 36 34 40 46 46
78 71 72 74 77 74 72 71 72 69 67 65 65 63 64 66 71 63 65 57 53 49 44 41 41 39 35 33 32 28 28 22 18 18 15 15 17 24 28 30 33 34 35 36 33 40 41
76 78 74 73 73 74 72 72 74 71 70 69 65 67 68 72 72 70 66 53 47 43 41 40 37 36 35 36 34 30 28 27 18 18 19 16 19 25 28 30 33 34 34 36 40 43 44
80 76 74 79 77 74 75 72 66 64 64 68 73 71 64 65 67 61 54 46 43 41 39 37 35 34 36 36 34 31 30 27 23 15 20 21 20 25 30 33 35 37 37 38 39 41 47

GFSGBSN_250_spd_123.txt.gz
Wind_Speed
75 78 77 76 71 65 65 65 66 64 63 63 60 60 59 55 55 55 57 58 57 58 59 62 63 65 64 60 63 64 65 67 73 77 80 82 81 82 81 82 83 80 77 78 75 75 74
68 69 68 65 68 67 68 69 66 64 65 64 61 61 61 61 60 58 58 61 60 61 64 64 64 64 64 64 65 64 69 71 71 76 81 80 82 83 83 86 87 85 83 81 81 82 85
72 69 71 73 70 68 68 66 68 68 65 65 63 66 65 65 64 62 61 61 61 65 62 63 66 67 65 66 69 69 68 73 71 68 68 73 76 78 82 83 87 89 89 90 83 89 92
81 76 72 74 74 75 75 71 72 70 68 65 63 65 67 68 65 63 67 68 65 62 65 65 66 66 69 68 71 68 69 66 69 67 69 77 83 84 86 88 88 96 98 96 85 98 99
87 82 81 79 77 77 75 77 78 77 74 74 70 70 69 71 71 71 72 74 71 71 70 71 72 75 71 73 73 73 73 70 66 70 80 78 72 76 84 86 85 92 96 104 94 94 99
92 92 86 85 85 83 83 81 80 80 79 79 77 77 77 77 77 75 77 81 79 79 77 77 75 75 76 78 79 79 78 75 70 77 75 82 82 83 85 93 88 89 97 100 105 88 108
98 96 99 92 91 88 88 87 86 90 88 84 84 85 85 82 81 82 83 84 86 86 82 79 78 80 82 79 82 83 83 77 77 82 85 82 88 93 93 92 93 92 96 104 102 113 110
106 103 105 100 95 95 93 92 95 92 87 88 91 87 90 88 89 89 88 86 89 90 87 84 81 81 78 79 84 85 78 78 88 89 87 93 94 94 90 94 96 95 98 110 122 119 117
112 114 108 103 102 101 100 102 102 99 96 95 96 92 94 92 92 95 95 90 85 85 84 80 82 82 81 81 82 82 83 89 91 90 98 100 103 98 95 98 106 99 108 108 112 106 103
117 116 116 109 108 110 107 108 107 104 102 103 100 101 97 99 96 97 97 91 86 86 86 85 85 84 85 84 85 88 89 90 92 100 100 107 108 100 100 98 102 89 106 99 98 98 91
111 114 112 114 114 112 116 111 113 107 107 105 106 102 104 102 97 99 95 89 85 84 87 90 88 89 90 91 89 92 91 98 99 103 105 112 104 101 105 94 91 79 88 87 85 84 77
100 98 100 102 110 112 110 110 111 111 108 112 104 107 111 102 98 96 92 83 87 85 85 89 88 89 89 89 92 91 95 98 106 106 106 106 105 97 86 81 76 70 74 72 67 69 66
82 87 92 94 97 97 100 103 106 106 109 108 98 100 104 93 97 94 87 85 83 84 86 87 90 91 90 91 91 94 100 101 108 106 109 108 100 79 72 68 62 63 63 57 54 53 52
49 56 72 81 89 93 100 99 100 102 99 96 93 96 96 92 92 88 82 81 82 85 88 90 92 94 95 92 93 95 101 106 108 106 101 87 82 67 64 56 50 54 51 45 42 38 37
56 50 56 62 67 79 86 85 86 85 93 91 88 90 91 91 88 84 78 79 78 82 83 82 83 86 90 91 94 98 102 110 104 103 88 71 67 62 56 50 47 47 40 35 32 28 27
60 59 66 67 69 68 67 66 73 82 85 87 86 89 87 83 85 89 76 73 75 77 81 84 87 89 90 94 99 103 109 108 104 88 73 61 59 56 50 45 39 38 35 30 24 20 24
70 68 71 67 67 66 65 68 74 77 81 82 87 88 88 86 85 80 78 78 78 76 79 82 86 86 91 96 102 107 103 100 95 77 64 54 53 48 43 36 30 32 29 22 18 18 22
75 72 72 72 70 69 68 68 73 74 81 80 82 86 86 79 86 79 71 64 70 72 76 76 80 86 88 93 101 107 104 94 78 66 55 48 45 41 34 27 24 25 24 21 18 20 23
75 80 76 73 67 66 67 61 67 73 73 80 81 78 78 75 79 68 64 63 66 71 71 75 77 82 89 95 99 103 89 73 64 54 48 39 35 33 27 22 21 22 20 20 20 23 23
76 80 76 71 70 64 62 63 63 67 70 68 67 63 68 66 70 66 63 62 65 65 63 68 72 77 80 83 87 78 65 58 53 46 38 35 30 27 22 20 20 16 21 20 25 26 30
72 70 68 71 66 58 61 58 55 56 56 56 56 58 53 56 54 56 57 57 53 52 57 62 65 65 68 68 62 58 53 48 46 40 31 31 28 24 21 20 20 21 20 22 27 33 37
73 69 67 63 63 62 59 56 54 54 54 58 62 58 59 62 59 62 54 52 50 54 54 52 57 59 59 57 52 46 43 41 37 31 27 27 24 24 18 22 24 25 23 26 27 33 41
69 67 67 64 60 60 54 55 49 40 43 50 53 51 51 51 48 44 45 46 46 47 49 55 58 57 55 52 47 43 37 35 35 30 20 26 23 19 20 22 26 28 26 34 35 38 46
74 67 69 62 63 59 58 53 49 44 42 40 40 42 41 43 42 38 39 42 47 52 57 57 57 57 52 49 45 39 32 30 28 28 24 24 24 20 22 22 27 30 30 38 42 43 50
69 71 66 65 57 63 56 51 45 46 43 41 41 41 39 37 37 40 42 48 50 54 56 54 59 62 53 48 42 38 31 28 26 26 24 21 23 21 24 24 25 27 29 36 44 49 53
71 69 65 64 58 53 51 48 46 51 48 47 47 44 41 41 41 45 47 53 53 52 54 57 59 58 51 43 41 35 28 24 24 25 22 23 21 22 24 21 24 23 28 34 43 53 51
73 72 65 64 57 55 57 56 52 51 49 47 44 43 43 45 48 50 51 54 50 55 58 53 53 49 46 41 40 34 29 23 19 23 25 21 23 24 24 23 24 25 24 32 34 44 54
73 72 69 68 60 56 54 57 60 55 52 52 49 48 48 51 51 54 53 52 56 57 53 53 47 45 42 40 38 32 31 26 19 18 25 23 23 25 26 26 25 28 28 28 33 39 46
70 71 72 68 63 60 57 58 61 60 57 56 54 54 52 51 53 57 55 54 55 51 50 45 43 42 40 39 36 34 33 29 23 19 22 26 25 27 28 29 29 29 31 33 33 36 42

GFSGBSN_250_spd_126.txt.gz
Wind_Speed
78 80 80 80 83 83 81 81 76 74 69 71 66 64 64 65 63 58 56 61 63 60 62 62 65 66 64 64 64 63 62 64 63 64 64 64 64 67 72 72 75 75 79 80 79 78 79
83 79 81 79 78 76 75 76 75 70 71 65 62 61 65 63 63 64 63 63 65 60 59 63 64 65 64 63 63 65 66 65 65 66 69 71 68 71 73 77 79 79 79 79 79 80 82
85 82 77 78 79 77 72 70 73 70 63 66 66 64 65 64 63 65 64 63 66 67 66 66 66 67 68 67 68 68 70 69 69 69 69 71 75 74 77 74 75 74 69 67 74 77 79
87 83 83 79 76 77 78 77 71 73 72 72 69 68 65 64 66 67 67 65 68 67 70 69 68 66 67 67 67 69 70 68 71 71 76 75 76 76 74 71 71 74 77 75 77 77 82
89 88 85 84 80 77 78 79 75 76 73 74 74 73 70 69 67 68 67 67 68 71 72 73 73 71 68 71 71 73 73 74 75 78 78 80 80 80 80 74 74 74 72 77 79 82 82
92 92 93 88 87 85 83 79 74 75 77 78 76 73 70 67 72 73 73 71 73 75 74 75 75 73 74 78 80 81 81 85 88 89 88 86 88 89 87 82 75 76 81 76 80 81 87
94 100 98 94 91 86 93 83 84 80 79 82 84 79 78 75 75 74 76 76 78 79 83 81 83 80 76 80 83 85 85 88 90 90 88 89 91 91 88 86 83 86 84 89 91 95 96
104 106 106 103 96 97 93 93 90 91 90 87 88 84 85 82 80 83 83 83 84 86 86 87 88 85 83 84 87 87 86 90 90 90 90 90 93 93 90 89 92 89 97 92 97 99 103
112 112 111 109 106 103 103 100 98 101 101 97 93 91 91 87 89 86 85 85 87 90 89 91 91 92 90 91 91 89 92 93 90 90 91 92 93 94 94 98 94 93 100 99 98 94 100
119 119 116 115 109 110 110 104 107 106 107 102 100 93 94 95 95 91 90 90 90 92 95 94 93 91 93 95 95 92 88 88 89 89 92 94 96 96 99 100 99 90 97 100 94 104 107
118 119 118 119 115 115 117 116 112 112 109 106 112 101 98 101 102 99 97 96 97 95 98 99 95 95 96 98 95 92 89 90 90 90 92 98 100 101 102 102 97 96 99 97 91 91 92
97 101 110 113 115 118 119 118 120 116 116 116 116 112 105 102 106 102 102 100 102 101 99 100 98 95 94 89 87 88 89 92 95 96 97 101 103 104 98 101 99 94 85 85 81 79 80
77 77 84 89 95 101 109 114 120 121 118 114 111 110 104 104 108 96 101 102 105 101 100 98 96 90 83 82 86 89 89 91 92 92 96 102 106 100 84 96 93 80 76 73 70 66 64
60 58 64 70 77 82 85 89 98 106 110 103 99 96 99 100 99 94 94 100 100 98 99 94 92 87 80 80 82 85 88 89 90 92 95 98 107 99 86 86 76 68 63 61 58 51 46
51 49 50 47 58 68 70 76 84 90 88 88 88 92 91 94 89 93 90 94 92 91 88 84 84 79 75 76 82 82 81 85 89 93 98 98 93 82 84 75 63 58 53 50 45 39 33
46 46 49 45 42 47 59 64 72 77 78 82 84 84 83 85 86 86 85 85 83 81 83 81 77 77 74 74 73 74 78 82 88 94 94 91 85 77 65 59 53 52 47 43 35 29 26
57 56 55 50 42 46 49 53 53 60 63 71 77 82 80 75 76 76 78 76 78 76 75 73 67 64 66 64 70 77 80 84 90 94 89 86 77 72 60 50 44 44 38 33 25 23 21
59 68 66 57 49 43 45 44 48 51 55 63 70 68 66 67 65 73 77 78 77 78 74 68 67 63 62 58 62 68 75 81 86 90 91 73 73 63 51 45 39 34 25 24 21 19 17
64 62 70 69 58 55 52 55 54 52 47 48 49 50 56 64 69 70 68 65 66 63 62 61 65 60 58 60 65 69 73 79 83 81 79 69 57 51 45 36 30 24 18 19 18 20 18
64 65 75 70 67 66 59 61 60 56 52 47 50 54 57 57 60 63 63 53 53 58 62 60 56 54 56 61 60 63 68 74 73 70 67 53 44 43 39 26 24 17 17 18 22 23 23
68 68 71 69 69 66 60 61 60 57 52 47 47 53 57 55 49 48 51 54 55 55 52 50 46 50 50 52 57 58 61 61 57 55 53 44 41 40 32 20 22 17 19 21 24 27 28
68 72 71 71 68 66 59 59 60 57 55 53 49 45 46 49 51 49 46 43 44 44 43 46 45 48 49 52 50 55 53 51 48 46 45 37 37 35 29 19 24 20 26 28 28 32 36
73 75 71 63 69 64 65 60 57 54 47 50 48 48 49 47 44 42 46 46 47 45 46 44 45 49 50 48 51 50 50 45 43 42 39 34 31 28 27 18 24 22 28 35 35 38 39
71 72 76 71 65 68 68 65 63 55 54 50 44 44 47 47 48 49 46 45 46 45 45 43 47 45 47 49 47 48 44 39 38 36 38 33 29 26 22 18 21 21 29 41 38 44 43
72 72 71 76 73 66 65 64 59 54 53 44 43 41 42 41 39 42 42 42 37 40 40 39 40 44 45 49 45 46 40 35 34 32 34 31 26 24 20 17 16 24 29 43 46 43 44
69 69 68 73 72 70 59 51 52 50 52 40 41 39 35 33 36 34 32 30 34 35 35 41 44 47 47 48 46 42 39 34 31 32 32 31 25 23 21 19 17 22 29 40 51 50 49
67 68 67 69 71 71 63 57 55 52 46 41 40 42 38 32 30 31 30 31 33 35 40 44 47 48 52 47 41 38 36 34 31 28 31 29 25 22 22 20 21 20 28 35 48 55 53
65 67 65 67 66 62 63 62 51 49 49 46 45 44 39 37 36 35 33 33 37 39 40 44 47 47 43 41 39 38 35 35 32 29 27 27 26 23 23 23 22 23 25 34 38 53 56
67 68 65 62 60 57 59 66 56 51 50 49 41 40 41 41 36 36 36 38 39 42 45 43 43 42 44 40 39 38 36 36 33 30 26 24 25 25 25 26 26 25 26 30 38 44 56